Observation data for Claude 12 Southwest on 02/22/2019      Previous  Date  Next       Current Mesonet Observations  Soil Data  Daily Summary Page  Observations in Plain Language
KCL1 220600Z 13010KT 02/M03 A2991 RMK A01 T00231030  RH  068%=      5-min Rain = 0
KCL1 220601Z 14013KT 02/M03 A2991 RMK A01 T00231030  RH  068%=      5-min Rain = 0
KCL1 220602Z 14011KT 02/M03 A2991 RMK A01 T00231030  RH  068%=      5-min Rain = 0
KCL1 220603Z 14013KT 02/M03 A2991 RMK A01 T00231030  RH  068%=      5-min Rain = 0
KCL1 220604Z 14012KT 02/M03 A2991 RMK A01 T00231030  RH  068%=      5-min Rain = 0
KCL1 220605Z 13013KT 02/M03 A2991 RMK A01 T00231029  RH  069%=      5-min Rain = 0
KCL1 220606Z 14012KT 02/M03 A2991 RMK A01 T00231029  RH  069%=      5-min Rain = 0
KCL1 220607Z 14011KT 02/M03 A2991 RMK A01 T00221029  RH  069%=      5-min Rain = 0
KCL1 220608Z 14013KT 02/M03 A2991 RMK A01 T00221029  RH  069%=      5-min Rain = 0
KCL1 220609Z 13014KT 02/M03 A2991 RMK A01 T00211029  RH  069%=      5-min Rain = 0
KCL1 220610Z 14014KT 02/M03 A2991 RMK A01 T00221028  RH  070%=      5-min Rain = 0
KCL1 220611Z 13010KT 02/M03 A2991 RMK A01 T00221028  RH  070%=      5-min Rain = 0
KCL1 220612Z 14011KT 02/M03 A2991 RMK A01 T00211028  RH  070%=      5-min Rain = 0
KCL1 220613Z 13010KT 02/M03 A2991 RMK A01 T00201029  RH  070%=      5-min Rain = 0
KCL1 220614Z 14012G17KT 02/M03 A2991 RMK A01 T00191029  RH  070%=      5-min Rain = 0
KCL1 220615Z 14013KT 02/M03 A2991 RMK A01 T00191028  RH  071%=      5-min Rain = 0
KCL1 220616Z 13012KT 02/M03 A2991 RMK A01 T00191027  RH  071%=      5-min Rain = 0
KCL1 220617Z 13012KT 02/M03 A2991 RMK A01 T00201027  RH  071%=      5-min Rain = 0
KCL1 220618Z 14011KT 02/M03 A2991 RMK A01 T00201027  RH  071%=      5-min Rain = 0
KCL1 220619Z 13012KT 02/M03 A2991 RMK A01 T00191026  RH  072%=      5-min Rain = 0
KCL1 220620Z 14012KT 02/M03 A2991 RMK A01 T00191026  RH  072%=      5-min Rain = 0
KCL1 220621Z 13014KT 02/M03 A2991 RMK A01 T00191026  RH  072%=      5-min Rain = 0
KCL1 220622Z 14014KT 02/M03 A2991 RMK A01 T00191025  RH  073%=      5-min Rain = 0
KCL1 220623Z 14013KT 02/M03 A2991 RMK A01 T00191025  RH  073%=      5-min Rain = 0
KCL1 220624Z 15010KT 02/M02 A2991 RMK A01 T00201024  RH  073%=      5-min Rain = 0
KCL1 220625Z 14011KT 02/M02 A2991 RMK A01 T00201024  RH  073%=      5-min Rain = 0
KCL1 220626Z 14013KT 02/M02 A299 RMK A01 T00191024  RH  073%=      5-min Rain = 0
KCL1 220627Z 14010KT 02/M02 A299 RMK A01 T00191024  RH  073%=      5-min Rain = 0
KCL1 220628Z 14011KT 02/M02 A299 RMK A01 T00191024  RH  073%=      5-min Rain = 0
KCL1 220629Z 13010KT 02/M02 A299 RMK A01 T00181024  RH  074%=      5-min Rain = 0
KCL1 220630Z 14012KT 02/M02 A299 RMK A01 T00181024  RH  074%=      5-min Rain = 0
KCL1 220631Z 14013KT 02/M02 A299 RMK A01 T00181023  RH  074%=      5-min Rain = 0
KCL1 220632Z 14013KT 02/M02 A299 RMK A01 T00181023  RH  074%=      5-min Rain = 0
KCL1 220633Z 14012KT 02/M02 A299 RMK A01 T00181023  RH  074%=      5-min Rain = 0
KCL1 220634Z 13011KT 02/M02 A299 RMK A01 T00181023  RH  074%=      5-min Rain = 0
KCL1 220635Z 13012KT 02/M02 A299 RMK A01 T00181023  RH  074%=      5-min Rain = 0
KCL1 220636Z 13010KT 02/M02 A299 RMK A01 T00171023  RH  075%=      5-min Rain = 0
KCL1 220637Z 14014KT 02/M02 A299 RMK A01 T00161023  RH  075%=      5-min Rain = 0
KCL1 220638Z 14015KT 02/M02 A299 RMK A01 T00171022  RH  076%=      5-min Rain = 0
KCL1 220639Z 14014KT 02/M02 A299 RMK A01 T00171021  RH  076%=      5-min Rain = 0
KCL1 220640Z 14013KT 02/M02 A299 RMK A01 T00171021  RH  076%=      5-min Rain = 0
KCL1 220641Z 14010KT 02/M02 A299 RMK A01 T00171022  RH  076%=      5-min Rain = 0
KCL1 220642Z 14010KT 02/M02 A299 RMK A01 T00161022  RH  076%=      5-min Rain = 0
KCL1 220643Z 13012KT 02/M02 A299 RMK A01 T00161022  RH  076%=      5-min Rain = 0
KCL1 220644Z 14011KT 02/M02 A299 RMK A01 T00151022  RH  076%=      5-min Rain = 0
KCL1 220645Z 13012KT 02/M02 A299 RMK A01 T00151021  RH  077%=      5-min Rain = 0
KCL1 220646Z 13012G17KT 02/M02 A299 RMK A01 T00151021  RH  077%=      5-min Rain = 0
KCL1 220647Z 13011KT 02/M02 A299 RMK A01 T00151020  RH  077%=      5-min Rain = 0
KCL1 220648Z 14012KT 02/M02 A299 RMK A01 T00151020  RH  077%=      5-min Rain = 0
KCL1 220649Z 14011KT 02/M02 A299 RMK A01 T00151020  RH  078%=      5-min Rain = 0
KCL1 220650Z 14011KT 02/M02 A299 RMK A01 T00151020  RH  078%=      5-min Rain = 0
KCL1 220651Z 14011KT 02/M02 A299 RMK A01 T00151020  RH  078%=      5-min Rain = 0
KCL1 220652Z 14010KT 02/M02 A299 RMK A01 T00151019  RH  078%=      5-min Rain = 0
KCL1 220653Z 14011KT 01/M02 A299 RMK A01 T00141020  RH  078%=      5-min Rain = 0
KCL1 220654Z 14012KT 01/M02 A299 RMK A01 T00141019  RH  078%=      5-min Rain = 0
KCL1 220655Z 14012KT 01/M02 A299 RMK A01 T00141019  RH  079%=      5-min Rain = 0
KCL1 220656Z 14013KT 01/M02 A2991 RMK A01 T00141019  RH  079%=      5-min Rain = 0
KCL1 220657Z 14011KT 01/M02 A299 RMK A01 T00141018  RH  079%=      5-min Rain = 0
KCL1 220658Z 14010KT 01/M02 A2991 RMK A01 T00141018  RH  079%=      5-min Rain = 0
KCL1 220659Z 14013KT 01/M02 A2991 RMK A01 T00141019  RH  079%=      5-min Rain = 0
KCL1 220700Z 14014KT 01/M02 A2991 RMK A01 T00131018  RH  080%=      5-min Rain = 0
KCL1 220701Z 14012KT 01/M02 A2991 RMK A01 T00131017  RH  080%=      5-min Rain = 0
KCL1 220702Z 14011KT 01/M02 A2991 RMK A01 T00131017  RH  080%=      5-min Rain = 0
KCL1 220703Z 14013KT 01/M02 A2991 RMK A01 T00131017  RH  080%=      5-min Rain = 0
KCL1 220704Z 14013KT 01/M02 A2991 RMK A01 T00131017  RH  081%=      5-min Rain = 0
KCL1 220705Z 14014KT 01/M02 A2991 RMK A01 T00131016  RH  081%=      5-min Rain = 0
KCL1 220706Z 14012KT 01/M02 A2991 RMK A01 T00131016  RH  081%=      5-min Rain = 0
KCL1 220707Z 14012KT 01/M02 A2991 RMK A01 T00131016  RH  081%=      5-min Rain = 0
KCL1 220708Z 13009KT 01/M02 A2991 RMK A01 T00131016  RH  081%=      5-min Rain = 0
KCL1 220709Z 14011KT 01/M02 A2991 RMK A01 T00121017  RH  081%=      5-min Rain = 0
KCL1 220710Z 14012G17KT 01/M02 A2991 RMK A01 T00111017  RH  082%=      5-min Rain = 0
KCL1 220711Z 13012KT 01/M02 A2991 RMK A01 T00111016  RH  082%=      5-min Rain = 0
KCL1 220712Z 14012KT 01/M02 A2991 RMK A01 T00111016  RH  082%=      5-min Rain = 0
KCL1 220713Z 13011KT 01/M02 A2991 RMK A01 T00111016  RH  082%=      5-min Rain = 0
KCL1 220714Z 13013KT 01/M02 A2991 RMK A01 T00121015  RH  082%=      5-min Rain = 0
KCL1 220715Z 13013KT 01/M02 A2991 RMK A01 T00111015  RH  082%=      5-min Rain = 0
KCL1 220716Z 14013KT 01/M02 A2991 RMK A01 T00111015  RH  082%=      5-min Rain = 0
KCL1 220717Z 14013KT 01/M02 A2991 RMK A01 T00111015  RH  082%=      5-min Rain = 0
KCL1 220718Z 13011KT 01/M02 A2991 RMK A01 T00111015  RH  083%=      5-min Rain = 0
KCL1 220719Z 14013KT 01/M02 A2991 RMK A01 T00111015  RH  083%=      5-min Rain = 0
KCL1 220720Z 14012KT 01/M02 A2991 RMK A01 T00111015  RH  083%=      5-min Rain = 0
KCL1 220721Z 14012KT 01/M02 A2991 RMK A01 T00111015  RH  083%=      5-min Rain = 0
KCL1 220722Z 14010KT 01/M02 A2991 RMK A01 T00101015  RH  083%=      5-min Rain = 0
KCL1 220723Z 13010KT 01/M02 A2991 RMK A01 T00101015  RH  083%=      5-min Rain = 0
KCL1 220724Z 14011KT 01/M02 A2991 RMK A01 T00091016  RH  084%=      5-min Rain = 0
KCL1 220725Z 14012KT 01/M02 A2991 RMK A01 T00091015  RH  084%=      5-min Rain = 0
KCL1 220726Z 14012KT 01/M01 A2991 RMK A01 T00091014  RH  084%=      5-min Rain = 0
KCL1 220727Z 14013KT 01/M01 A2991 RMK A01 T00091014  RH  085%=      5-min Rain = 0
KCL1 220728Z 14012KT 01/M01 A2991 RMK A01 T00091013  RH  085%=      5-min Rain = 0
KCL1 220729Z 14011KT 01/M01 A2991 RMK A01 T00091013  RH  085%=      5-min Rain = 0
KCL1 220730Z 13012KT 01/M01 A2991 RMK A01 T00091013  RH  085%=      5-min Rain = 0
KCL1 220731Z 14011KT 01/M01 A2991 RMK A01 T00091012  RH  086%=      5-min Rain = 0
KCL1 220732Z 14014KT 01/M01 A2991 RMK A01 T00091012  RH  086%=      5-min Rain = 0
KCL1 220733Z 14012KT 01/M01 A2991 RMK A01 T00091011  RH  086%=      5-min Rain = 0
KCL1 220734Z 13010KT 01/M01 A2991 RMK A01 T00081012  RH  086%=      5-min Rain = 0
KCL1 220735Z 14012KT 01/M01 A2991 RMK A01 T00081012  RH  086%=      5-min Rain = 0
KCL1 220736Z 13010KT 01/M01 A299 RMK A01 T00081011  RH  087%=      5-min Rain = 0
KCL1 220737Z 13011KT 01/M01 A299 RMK A01 T00081011  RH  087%=      5-min Rain = 0
KCL1 220738Z 14012KT 01/M01 A299 RMK A01 T00071011  RH  087%=      5-min Rain = 0
KCL1 220739Z 13011KT 01/M01 A2991 RMK A01 T00071010  RH  088%=      5-min Rain = 0
KCL1 220740Z 14012KT 01/M01 A2991 RMK A01 T00071010  RH  088%=      5-min Rain = 0
KCL1 220741Z 14011KT 01/M01 A2991 RMK A01 T00071010  RH  088%=      5-min Rain = 0
KCL1 220742Z 14011KT 01/M01 A2991 RMK A01 T00071010  RH  089%=      5-min Rain = 0
KCL1 220743Z 14010KT 01/M01 A2991 RMK A01 T00071009  RH  089%=      5-min Rain = 0
KCL1 220744Z 14010KT 01/M01 A2991 RMK A01 T00071009  RH  089%=      5-min Rain = 0
KCL1 220745Z 13008KT 01/M01 A2991 RMK A01 T00071009  RH  089%=      5-min Rain = 0
KCL1 220746Z 13008KT 01/M01 A2991 RMK A01 T00061009  RH  089%=      5-min Rain = 0
KCL1 220747Z 13009KT 01/M01 A2991 RMK A01 T00051010  RH  089%=      5-min Rain = 0
KCL1 220748Z 14008KT 01/M01 A2991 RMK A01 T00051010  RH  090%=      5-min Rain = 0
KCL1 220749Z 14009KT 01/M01 A2991 RMK A01 T00051010  RH  090%=      5-min Rain = 0
KCL1 220750Z 14009KT 01/M01 A2991 RMK A01 T00051009  RH  091%=      5-min Rain = 0
KCL1 220751Z 14009KT 01/M01 A2991 RMK A01 T00051009  RH  091%=      5-min Rain = 0
KCL1 220752Z 13008KT 01/M01 A2991 RMK A01 T00051009  RH  091%=      5-min Rain = 0
KCL1 220753Z 13009KT 01/M01 A2991 RMK A01 T00051008  RH  091%=      5-min Rain = 0
KCL1 220754Z 13009KT 01/M01 A2991 RMK A01 T00051008  RH  091%=      5-min Rain = 0
KCL1 220755Z 13011KT 01/M01 A2991 RMK A01 T00051008  RH  092%=      5-min Rain = 0
KCL1 220756Z 13010KT 01/M01 A2991 RMK A01 T00051007  RH  092%=      5-min Rain = 0
KCL1 220757Z 14009KT 01/M01 A2991 RMK A01 T00051007  RH  092%=      5-min Rain = 0
KCL1 220758Z 13009KT 01/M01 A2991 RMK A01 T00051006  RH  092%=      5-min Rain = 0
KCL1 220759Z 13009KT 00/M01 A2991 RMK A01 T00041007  RH  092%=      5-min Rain = 0
KCL1 220800Z 13010KT 01/M01 A2991 RMK A01 T00051006  RH  093%=      5-min Rain = 0
KCL1 220801Z 13009KT 00/M01 A2991 RMK A01 T00041006  RH  093%=      5-min Rain = 0
KCL1 220802Z 13010KT 00/M01 A2991 RMK A01 T00041006  RH  093%=      5-min Rain = 0
KCL1 220803Z 13008KT 00/M01 A2991 RMK A01 T00041005  RH  093%=      5-min Rain = 0
KCL1 220804Z 13009KT 00/M01 A2992 RMK A01 T00041006  RH  093%=      5-min Rain = 0
KCL1 220805Z 14008KT 00/M01 A2992 RMK A01 T00041006  RH  093%=      5-min Rain = 0
KCL1 220806Z 14008KT 00/M01 A2992 RMK A01 T00041005  RH  093%=      5-min Rain = 0
KCL1 220807Z 15007KT 00/M01 A2992 RMK A01 T00041006  RH  093%=      5-min Rain = 0
KCL1 220808Z 15006KT 00/M01 A2992 RMK A01 T00031006  RH  093%=      5-min Rain = 0
KCL1 220809Z 15006KT 00/M01 A2992 RMK A01 T00031006  RH  094%=      5-min Rain = 0
KCL1 220810Z 15006KT 00/M01 A2992 RMK A01 T00021006  RH  094%=      5-min Rain = 0
KCL1 220811Z 15006KT 00/M01 A2993 RMK A01 T00031006  RH  094%=      5-min Rain = 0
KCL1 220812Z 15007KT 00/M01 A2993 RMK A01 T00021007  RH  094%=      5-min Rain = 0
KCL1 220813Z 16006KT 00/M01 A2993 RMK A01 T00021006  RH  095%=      5-min Rain = 0
KCL1 220814Z 15006KT 00/M01 A2993 RMK A01 T00021005  RH  095%=      5-min Rain = 0
KCL1 220815Z 14006KT 00/M00 A2993 RMK A01 T00031004  RH  095%=      5-min Rain = 0
KCL1 220816Z 15006KT 00/M01 A2993 RMK A01 T00031005  RH  095%=      5-min Rain = 0
KCL1 220817Z 15008KT 00/M00 A2993 RMK A01 T00031004  RH  095%=      5-min Rain = 0
KCL1 220818Z 14007KT 00/M00 A2993 RMK A01 T00031003  RH  096%=      5-min Rain = 0
KCL1 220819Z 15007KT 00/M00 A2993 RMK A01 T00041003  RH  095%=      5-min Rain = 0
KCL1 220820Z 15008KT 00/M00 A2993 RMK A01 T00041003  RH  095%=      5-min Rain = 0
KCL1 220821Z 15007KT 01/M00 A2993 RMK A01 T00051002  RH  095%=      5-min Rain = 0
KCL1 220822Z 14006KT 00/M00 A2993 RMK A01 T00041002  RH  095%=      5-min Rain = 0
KCL1 220823Z 15008KT 00/M00 A2993 RMK A01 T00041002  RH  095%=      5-min Rain = 0
KCL1 220824Z 14008KT 00/M00 A2993 RMK A01 T00041002  RH  095%=      5-min Rain = 0
KCL1 220825Z 15008KT 01/M00 A2993 RMK A01 T00051002  RH  096%=      5-min Rain = 0
KCL1 220826Z 15007KT 01/M00 A2993 RMK A01 T00051001  RH  096%=      5-min Rain = 0
KCL1 220827Z 15008KT 01/M00 A2993 RMK A01 T00051001  RH  096%=      5-min Rain = 0
KCL1 220828Z 14007KT 01/M00 A2993 RMK A01 T00051001  RH  096%=      5-min Rain = 0
KCL1 220829Z 14009KT 01/00 A2993 RMK A01 T000500-0  RH  096%=      5-min Rain = 0
KCL1 220830Z 14011KT 01/00 A2993 RMK A01 T00060000  RH  096%=      5-min Rain = 0
KCL1 220831Z 14009KT 01/00 A2993 RMK A01 T00060001  RH  097%=      5-min Rain = 0
KCL1 220832Z 14011KT 01/00 A2993 RMK A01 T00060002  RH  097%=      5-min Rain = 0
KCL1 220833Z 14011KT 01/00 A2993 RMK A01 T00060002  RH  097%=      5-min Rain = 0
KCL1 220834Z 15010KT 01/00 A2993 RMK A01 T00060002  RH  097%=      5-min Rain = 0
KCL1 220835Z 15011KT 01/00 A2993 RMK A01 T00060002  RH  097%=      5-min Rain = 0
KCL1 220836Z 15009KT 01/00 A2993 RMK A01 T00060002  RH  097%=      5-min Rain = 0
KCL1 220837Z 14008KT 01/00 A2993 RMK A01 T00060003  RH  097%=      5-min Rain = 0
KCL1 220838Z 15008KT 01/00 A2993 RMK A01 T00070003  RH  097%=      5-min Rain = 0
KCL1 220839Z 15009KT 01/00 A2993 RMK A01 T00060003  RH  097%=      5-min Rain = 0
KCL1 220840Z 15010KT 01/00 A2993 RMK A01 T00070003  RH  097%=      5-min Rain = 0
KCL1 220841Z 14010KT 01/00 A2993 RMK A01 T00060003  RH  097%=      5-min Rain = 0
KCL1 220842Z 15011KT 01/00 A2993 RMK A01 T00060003  RH  098%=      5-min Rain = 0
KCL1 220843Z 16010KT 01/00 A2993 RMK A01 T00060003  RH  098%=      5-min Rain = 0
KCL1 220844Z 15007KT 01/00 A2994 RMK A01 T00060003  RH  098%=      5-min Rain = 0
KCL1 220845Z 14007KT 01/00 A2994 RMK A01 T00060003  RH  098%=      5-min Rain = 0
KCL1 220846Z 14010KT 01/00 A2994 RMK A01 T00060003  RH  098%=      5-min Rain = 0
KCL1 220847Z 14009KT 01/00 A2994 RMK A01 T00060004  RH  098%=      5-min Rain = 0
KCL1 220848Z 14008KT 01/00 A2994 RMK A01 T00060004  RH  099%=      5-min Rain = 0
KCL1 220849Z 14009KT 01/00 A2994 RMK A01 T00060004  RH  099%=      5-min Rain = 0
KCL1 220850Z 15007KT 01/00 A2994 RMK A01 T00060004  RH  099%=      5-min Rain = 0
KCL1 220851Z 14008KT 01/00 A2994 RMK A01 T00060004  RH  099%=      5-min Rain = 0
KCL1 220852Z 15009KT 01/00 A2994 RMK A01 T00060004  RH  099%=      5-min Rain = 0
KCL1 220853Z 15010KT 01/00 A2994 RMK A01 T00060004  RH  099%=      5-min Rain = 0
KCL1 220854Z 16007KT 01/00 A2994 RMK A01 T00060004  RH  099%=      5-min Rain = 0
KCL1 220855Z 15009KT 01/00 A2995 RMK A01 T00060004  RH  099%=      5-min Rain = 0
KCL1 220856Z 16008KT 01/01 A2995 RMK A01 T00060005  RH  099%=      5-min Rain = 0
KCL1 220857Z 15008KT 01/01 A2995 RMK A01 T00060005  RH  099%=      5-min Rain = 0
KCL1 220858Z 16008KT 01/01 A2995 RMK A01 T00060005  RH  099%=      5-min Rain = 0
KCL1 220859Z 18010KT 01/01 A2995 RMK A01 T00060005  RH  099%=      5-min Rain = 0
KCL1 220900Z 18010KT 01/01 A2995 RMK A01 T00070006  RH  099%=      5-min Rain = 0
KCL1 220901Z 17008KT 01/01 A2995 RMK A01 T00070006  RH  099%=      5-min Rain = 0
KCL1 220902Z 16008KT 01/01 A2995 RMK A01 T00070006  RH  099%=      5-min Rain = 0
KCL1 220903Z 15008KT 01/01 A2995 RMK A01 T00070006  RH  099%=      5-min Rain = 0
KCL1 220904Z 15007KT 01/01 A2995 RMK A01 T00070006  RH  099%=      5-min Rain = 0
KCL1 220905Z 16007KT 01/01 A2995 RMK A01 T00070005  RH  099%=      5-min Rain = 0
KCL1 220906Z 15006KT 01/01 A2995 RMK A01 T00070005  RH  099%=      5-min Rain = 0
KCL1 220907Z 14006KT 01/01 A2995 RMK A01 T00070006  RH  099%=      5-min Rain = 0
KCL1 220908Z 14007KT 01/01 A2995 RMK A01 T00070006  RH  099%=      5-min Rain = 0
KCL1 220909Z 14009KT 01/01 A2994 RMK A01 T00070006  RH  099%=      5-min Rain = 0
KCL1 220910Z 14009KT 01/01 A2994 RMK A01 T00070005  RH  099%=      5-min Rain = 0
KCL1 220911Z 14008KT 01/01 A2994 RMK A01 T00070005  RH  099%=      5-min Rain = 0
KCL1 220912Z 15007KT 01/01 A2994 RMK A01 T00070006  RH  099%=      5-min Rain = 0
KCL1 220913Z 14009KT 01/01 A2994 RMK A01 T00070006  RH  099%=      5-min Rain = 0
KCL1 220914Z 13007KT 01/01 A2994 RMK A01 T00070006  RH  099%=      5-min Rain = 0
KCL1 220915Z 13007KT 01/01 A2993 RMK A01 T00070006  RH  099%=      5-min Rain = 0
KCL1 220916Z 12008KT 01/01 A2993 RMK A01 T00070006  RH  099%=      5-min Rain = 0
KCL1 220917Z 12008KT 01/01 A2993 RMK A01 T00070006  RH  099%=      5-min Rain = 0
KCL1 220918Z 13010KT 01/01 A2993 RMK A01 T00070006  RH  099%=      5-min Rain = 0
KCL1 220919Z 12009KT 01/01 A2993 RMK A01 T00070006  RH  100%=      5-min Rain = 0
KCL1 220920Z 13008KT 01/01 A2993 RMK A01 T00060006  RH  100%=      5-min Rain = 0
KCL1 220921Z 13008KT 01/01 A2993 RMK A01 T00060006  RH  100%=      5-min Rain = 0
KCL1 220922Z 13009KT 01/01 A2993 RMK A01 T00060006  RH  100%=      5-min Rain = 0
KCL1 220923Z 13010KT 01/01 A2993 RMK A01 T00060006  RH  100%=      5-min Rain = 0
KCL1 220924Z 12011KT 01/01 A2992 RMK A01 T00060006  RH  100%=      5-min Rain = 0
KCL1 220925Z 12011KT 01/01 A2992 RMK A01 T00060006  RH  100%=      5-min Rain = 0
KCL1 220926Z 12009KT 01/01 A2992 RMK A01 T00050005  RH  100%=      5-min Rain = 0
KCL1 220927Z 12009KT 01/01 A2992 RMK A01 T00060006  RH  100%=      5-min Rain = 0
KCL1 220928Z 12010KT 01/01 A2992 RMK A01 T00060006  RH  100%=      5-min Rain = 0
KCL1 220929Z 11011KT 01/01 A2992 RMK A01 T00050005  RH  100%=      5-min Rain = 0
KCL1 220930Z 11012KT 01/01 A2992 RMK A01 T00050005  RH  100%=      5-min Rain = 0
KCL1 220931Z 11011KT 01/01 A2991 RMK A01 T00060006  RH  100%=      5-min Rain = 0
KCL1 220932Z 11011KT 01/01 A2991 RMK A01 T00050005  RH  100%=      5-min Rain = 0
KCL1 220933Z 11011KT 01/01 A2991 RMK A01 T00050005  RH  100%=      5-min Rain = 0
KCL1 220934Z 12011KT 01/01 A2991 RMK A01 T00050005  RH  100%=      5-min Rain = 0
KCL1 220935Z 11009KT 01/01 A2991 RMK A01 T00050005  RH  100%=      5-min Rain = 0
KCL1 220936Z 11009KT 01/01 A2991 RMK A01 T00050005  RH  100%=      5-min Rain = 0
KCL1 220937Z 11010KT 01/01 A2992 RMK A01 T00050005  RH  100%=      5-min Rain = 0
KCL1 220938Z 11009KT 01/01 A2992 RMK A01 T00050005  RH  100%=      5-min Rain = 0
KCL1 220939Z 12008KT 01/01 A2992 RMK A01 T00050005  RH  100%=      5-min Rain = 0
KCL1 220940Z 12008KT 01/01 A2992 RMK A01 T00050005  RH  100%=      5-min Rain = 0
KCL1 220941Z 13008KT 01/01 A2992 RMK A01 T00050005  RH  100%=      5-min Rain = 0
KCL1 220942Z 13010KT 01/01 A2992 RMK A01 T00050005  RH  100%=      5-min Rain = 0
KCL1 220943Z 13009KT 01/01 A2992 RMK A01 T00050005  RH  100%=      5-min Rain = 0
KCL1 220944Z 12011KT 01/01 A2992 RMK A01 T00050005  RH  100%=      5-min Rain = 0
KCL1 220945Z 12010KT 01/01 A2992 RMK A01 T00050005  RH  100%=      5-min Rain = 0
KCL1 220946Z 13010KT 01/01 A2992 RMK A01 T00050005  RH  100%=      5-min Rain = 0
KCL1 220947Z 12011KT 01/01 A2992 RMK A01 T00050005  RH  100%=      5-min Rain = 0
KCL1 220948Z 12011KT 01/01 A2992 RMK A01 T00050005  RH  100%=      5-min Rain = 0
KCL1 220949Z 13013KT 01/01 A2992 RMK A01 T00050005  RH  100%=      5-min Rain = 0
KCL1 220950Z 13013KT 01/01 A2992 RMK A01 T00050005  RH  100%=      5-min Rain = 0
KCL1 220951Z 14013KT 01/01 A2992 RMK A01 T00050005  RH  100%=      5-min Rain = 0
KCL1 220952Z 13010KT 01/01 A2992 RMK A01 T00050005  RH  100%=      5-min Rain = 0
KCL1 220953Z 12014KT 01/01 A2992 RMK A01 T00050005  RH  100%=      5-min Rain = 0
KCL1 220954Z 13011KT 01/01 A2992 RMK A01 T00050005  RH  100%=      5-min Rain = 0
KCL1 220955Z 13011KT 01/01 A2992 RMK A01 T00050005  RH  100%=      5-min Rain = 0
KCL1 220956Z 13011KT 01/01 A2992 RMK A01 T00050005  RH  100%=      5-min Rain = 0
KCL1 220957Z 13013KT 01/01 A2992 RMK A01 T00050005  RH  100%=      5-min Rain = 0
KCL1 220958Z 13012KT 01/01 A2992 RMK A01 T00050005  RH  100%=      5-min Rain = 0
KCL1 220959Z 14011KT 01/01 A2992 RMK A01 T00050005  RH  100%=      5-min Rain = 0
KCL1 221000Z 14011KT 00/00 A2992 RMK A01 T00040004  RH  100%=      5-min Rain = 0
KCL1 221001Z 13012KT 01/00 A2992 RMK A01 T00050004  RH  100%=      5-min Rain = 0
KCL1 221002Z 13010KT 00/00 A2992 RMK A01 T00040004  RH  100%=      5-min Rain = 0
KCL1 221003Z 14010KT 00/00 A2992 RMK A01 T00040004  RH  100%=      5-min Rain = 0
KCL1 221004Z 13012KT 00/00 A2992 RMK A01 T00040004  RH  100%=      5-min Rain = 0
KCL1 221005Z 13013KT 00/00 A2991 RMK A01 T00040004  RH  100%=      5-min Rain = 0
KCL1 221006Z 13011KT 00/00 A2991 RMK A01 T00040004  RH  100%=      5-min Rain = 0
KCL1 221007Z 13009KT 00/00 A2991 RMK A01 T00040004  RH  100%=      5-min Rain = 0
KCL1 221008Z 14008KT 00/00 A2992 RMK A01 T00040004  RH  100%=      5-min Rain = 0
KCL1 221009Z 14009KT 00/00 A2992 RMK A01 T00040004  RH  100%=      5-min Rain = 0
KCL1 221010Z 13007KT 00/00 A2992 RMK A01 T00040004  RH  100%=      5-min Rain = 0
KCL1 221011Z 14007KT 00/00 A2992 RMK A01 T00040004  RH  100%=      5-min Rain = 0
KCL1 221012Z 13009KT 00/00 A2992 RMK A01 T00040004  RH  100%=      5-min Rain = 0
KCL1 221013Z 14009KT 00/00 A2992 RMK A01 T00040004  RH  100%=      5-min Rain = 0
KCL1 221014Z 13010KT 00/00 A2992 RMK A01 T00040004  RH  100%=      5-min Rain = 0
KCL1 221015Z 14011KT 00/00 A2992 RMK A01 T00040004  RH  100%=      5-min Rain = 0
KCL1 221016Z 14009KT 00/00 A2992 RMK A01 T00040004  RH  100%=      5-min Rain = 0
KCL1 221017Z 14008KT 00/00 A2992 RMK A01 T00040004  RH  100%=      5-min Rain = 0
KCL1 221018Z 13009KT 00/00 A2992 RMK A01 T00040004  RH  100%=      5-min Rain = 0
KCL1 221019Z 13008KT 00/00 A2992 RMK A01 T00040004  RH  100%=      5-min Rain = 0
KCL1 221020Z 13007KT 00/00 A2992 RMK A01 T00030003  RH  100%=      5-min Rain = 0
KCL1 221021Z 13010KT 00/00 A2992 RMK A01 T00040004  RH  100%=      5-min Rain = 0
KCL1 221022Z 13011KT 00/00 A2992 RMK A01 T00040004  RH  100%=      5-min Rain = 0
KCL1 221023Z 12009KT 00/00 A2992 RMK A01 T00040003  RH  100%=      5-min Rain = 0
KCL1 221024Z 12009KT 00/00 A2992 RMK A01 T00030003  RH  100%=      5-min Rain = 0
KCL1 221025Z 13011KT 00/00 A2992 RMK A01 T00040004  RH  100%=      5-min Rain = 0
KCL1 221026Z 13011KT 00/00 A2992 RMK A01 T00040003  RH  100%=      5-min Rain = 0
KCL1 221027Z 13012KT 00/00 A2992 RMK A01 T00030003  RH  100%=      5-min Rain = 0
KCL1 221028Z 14009KT 00/00 A2992 RMK A01 T00040003  RH  100%=      5-min Rain = 0
KCL1 221029Z 13007KT 00/00 A2992 RMK A01 T00030003  RH  100%=      5-min Rain = 0
KCL1 221030Z 14009G14KT 00/00 A2992 RMK A01 T00040004  RH  100%=      5-min Rain = 0
KCL1 221031Z 13010KT 00/00 A2992 RMK A01 T00040004  RH  100%=      5-min Rain = 0
KCL1 221032Z 14009KT 00/00 A2992 RMK A01 T00040003  RH  100%=      5-min Rain = 0
KCL1 221033Z 14007KT 00/00 A2992 RMK A01 T00030003  RH  100%=      5-min Rain = 0
KCL1 221034Z 12008KT 00/00 A2992 RMK A01 T00040004  RH  100%=      5-min Rain = 0
KCL1 221035Z 13010KT 00/00 A2992 RMK A01 T00030003  RH  100%=      5-min Rain = 0
KCL1 221036Z 14006KT 00/00 A2992 RMK A01 T00030003  RH  100%=      5-min Rain = 0
KCL1 221037Z 13006KT 00/00 A2992 RMK A01 T00030003  RH  100%=      5-min Rain = 0
KCL1 221038Z 13007KT 00/00 A2992 RMK A01 T00030003  RH  100%=      5-min Rain = 0
KCL1 221039Z 14007KT 00/00 A2992 RMK A01 T00030003  RH  100%=      5-min Rain = 0
KCL1 221040Z 14008KT 00/00 A2992 RMK A01 T00030003  RH  100%=      5-min Rain = 0
KCL1 221041Z 13008KT 00/00 A2992 RMK A01 T00030003  RH  100%=      5-min Rain = 0
KCL1 221042Z 12007KT 00/00 A2992 RMK A01 T00030003  RH  100%=      5-min Rain = 0
KCL1 221043Z 12008KT 00/00 A2992 RMK A01 T00030003  RH  100%=      5-min Rain = 0
KCL1 221044Z 12009KT 00/00 A2992 RMK A01 T00030003  RH  100%=      5-min Rain = 0
KCL1 221045Z 13009KT 00/00 A2992 RMK A01 T00030003  RH  100%=      5-min Rain = 0
KCL1 221046Z 12009KT 00/00 A2992 RMK A01 T00030003  RH  100%=      5-min Rain = 0
KCL1 221047Z 13006KT 00/00 A2992 RMK A01 T00030003  RH  100%=      5-min Rain = 0
KCL1 221048Z 12007KT 00/00 A2992 RMK A01 T00030003  RH  100%=      5-min Rain = 0
KCL1 221049Z 13007KT 00/00 A2992 RMK A01 T00030003  RH  100%=      5-min Rain = 0
KCL1 221050Z 12009KT 00/00 A2992 RMK A01 T00030003  RH  100%=      5-min Rain = 0
KCL1 221051Z 13010KT 00/00 A2992 RMK A01 T00040003  RH  100%=      5-min Rain = 0
KCL1 221052Z 13009KT 00/00 A2992 RMK A01 T00030003  RH  100%=      5-min Rain = 0
KCL1 221053Z 13008KT 00/00 A2992 RMK A01 T00030003  RH  100%=      5-min Rain = 0
KCL1 221054Z 14007KT 00/00 A2992 RMK A01 T00030003  RH  100%=      5-min Rain = 0
KCL1 221055Z 14009KT 00/00 A2992 RMK A01 T00030003  RH  100%=      5-min Rain = 0
KCL1 221056Z 14008KT 00/00 A2992 RMK A01 T00030003  RH  100%=      5-min Rain = 0
KCL1 221057Z 14008KT 00/00 A2992 RMK A01 T00030003  RH  100%=      5-min Rain = 0
KCL1 221058Z 13008KT 00/00 A2991 RMK A01 T00030003  RH  100%=      5-min Rain = 0
KCL1 221059Z 13007KT 00/00 A2992 RMK A01 T00030003  RH  100%=      5-min Rain = 0
KCL1 221100Z 13006KT 00/00 A2991 RMK A01 T00030003  RH  100%=      5-min Rain = 0
KCL1 221101Z 12006KT 00/00 A2992 RMK A01 T00030003  RH  100%=      5-min Rain = 0
KCL1 221102Z 13005KT 00/00 A2992 RMK A01 T00030003  RH  100%=      5-min Rain = 0
KCL1 221103Z 13007KT 00/00 A2992 RMK A01 T00030003  RH  100%=      5-min Rain = 0
KCL1 221104Z 13007KT 00/00 A2992 RMK A01 T00030003  RH  100%=      5-min Rain = 0
KCL1 221105Z 13009KT 00/00 A2992 RMK A01 T00030003  RH  100%=      5-min Rain = 0
KCL1 221106Z 13008KT 00/00 A2992 RMK A01 T00030003  RH  100%=      5-min Rain = 0
KCL1 221107Z 13006KT 00/00 A2992 RMK A01 T00030003  RH  100%=      5-min Rain = 0
KCL1 221108Z 13005KT 00/00 A2992 RMK A01 T00030003  RH  100%=      5-min Rain = 0
KCL1 221109Z 12010KT 00/00 A2992 RMK A01 T00030003  RH  100%=      5-min Rain = 0
KCL1 221110Z 13009KT 00/00 A2992 RMK A01 T00030003  RH  100%=      5-min Rain = 0
KCL1 221111Z 13010KT 00/00 A2992 RMK A01 T00030003  RH  100%=      5-min Rain = 0
KCL1 221112Z 13011KT 00/00 A2992 RMK A01 T00030003  RH  100%=      5-min Rain = 0
KCL1 221113Z 13009KT 00/00 A2992 RMK A01 T00030003  RH  100%=      5-min Rain = 0
KCL1 221114Z 13011KT 00/00 A2992 RMK A01 T00030003  RH  100%=      5-min Rain = 0
KCL1 221115Z 13011KT 00/00 A2992 RMK A01 T00030003  RH  100%=      5-min Rain = 0
KCL1 221116Z 13010KT 00/00 A2992 RMK A01 T00030003  RH  100%=      5-min Rain = 0
KCL1 221117Z 13009KT 00/00 A2991 RMK A01 T00030003  RH  100%=      5-min Rain = 0
KCL1 221118Z 13008KT 00/00 A2991 RMK A01 T00030003  RH  100%=      5-min Rain = 0
KCL1 221119Z 12008KT 00/00 A2991 RMK A01 T00030003  RH  100%=      5-min Rain = 0
KCL1 221120Z 13007KT 00/00 A2991 RMK A01 T00030003  RH  100%=      5-min Rain = 0
KCL1 221121Z 12010KT 00/00 A2991 RMK A01 T00030003  RH  100%=      5-min Rain = 0
KCL1 221122Z 12010KT 00/00 A2991 RMK A01 T00030003  RH  100%=      5-min Rain = 0
KCL1 221123Z 12010KT 00/00 A2991 RMK A01 T00030003  RH  100%=      5-min Rain = 0
KCL1 221124Z 12011KT 00/00 A2991 RMK A01 T00030003  RH  100%=      5-min Rain = 0
KCL1 221125Z 12010KT 00/00 A2991 RMK A01 T00030003  RH  100%=      5-min Rain = 0
KCL1 221126Z 12011KT 00/00 A2991 RMK A01 T00030003  RH  100%=      5-min Rain = 0
KCL1 221127Z 12010KT 00/00 A2991 RMK A01 T00030003  RH  100%=      5-min Rain = 0
KCL1 221128Z 13009KT 00/00 A2991 RMK A01 T00030003  RH  100%=      5-min Rain = 0
KCL1 221129Z 12009KT 00/00 A2991 RMK A01 T00030003  RH  100%=      5-min Rain = 0
KCL1 221130Z 13007KT 00/00 A2991 RMK A01 T00030003  RH  100%=      5-min Rain = 0
KCL1 221131Z 12008KT 00/00 A2991 RMK A01 T00020002  RH  100%=      5-min Rain = 0
KCL1 221132Z 12007KT 00/00 A2991 RMK A01 T00030003  RH  100%=      5-min Rain = 0
KCL1 221133Z 12008KT 00/00 A2991 RMK A01 T00030003  RH  100%=      5-min Rain = 0
KCL1 221134Z 12010KT 00/00 A2991 RMK A01 T00030002  RH  100%=      5-min Rain = 0
KCL1 221135Z 12010KT 00/00 A2991 RMK A01 T00030003  RH  100%=      5-min Rain = 0
KCL1 221136Z 12010KT 00/00 A2991 RMK A01 T00030002  RH  100%=      5-min Rain = 0
KCL1 221137Z 12010KT 00/00 A2991 RMK A01 T00030002  RH  100%=      5-min Rain = 0
KCL1 221138Z 12010KT 00/00 A299 RMK A01 T00030003  RH  100%=      5-min Rain = 0
KCL1 221139Z 12011KT 00/00 A299 RMK A01 T00030002  RH  100%=      5-min Rain = 0
KCL1 221140Z 11011KT 00/00 A299 RMK A01 T00020002  RH  100%=      5-min Rain = 0
KCL1 221141Z 12011KT 00/00 A299 RMK A01 T00030003  RH  100%=      5-min Rain = 0
KCL1 221142Z 12011KT 00/00 A299 RMK A01 T00030002  RH  100%=      5-min Rain = 0
KCL1 221143Z 12010KT 00/00 A299 RMK A01 T00030003  RH  100%=      5-min Rain = 0
KCL1 221144Z 12010KT 00/00 A299 RMK A01 T00030003  RH  100%=      5-min Rain = 0
KCL1 221145Z 12009KT 00/00 A299 RMK A01 T00030002  RH  100%=      5-min Rain = 0
KCL1 221146Z 12008KT 00/00 A299 RMK A01 T00030002  RH  100%=      5-min Rain = 0
KCL1 221147Z 12008KT 00/00 A299 RMK A01 T00030003  RH  100%=      5-min Rain = 0
KCL1 221148Z 13007KT 00/00 A299 RMK A01 T00030003  RH  100%=      5-min Rain = 0
KCL1 221149Z 13005KT 00/00 A2991 RMK A01 T00030003  RH  100%=      5-min Rain = 0
KCL1 221150Z 13007KT 00/00 A2991 RMK A01 T00030003  RH  100%=      5-min Rain = 0
KCL1 221151Z 13007KT 00/00 A2991 RMK A01 T00030003  RH  100%=      5-min Rain = 0
KCL1 221152Z 13008KT 00/00 A2991 RMK A01 T00030003  RH  100%=      5-min Rain = 0
KCL1 221153Z 13009KT 00/00 A2991 RMK A01 T00030003  RH  100%=      5-min Rain = 0
KCL1 221154Z 13008KT 00/00 A2991 RMK A01 T00030003  RH  100%=      5-min Rain = 0
KCL1 221155Z 12008KT 00/00 A2991 RMK A01 T00030003  RH  100%=      5-min Rain = 0
KCL1 221156Z 13007KT 00/00 A2991 RMK A01 T00030003  RH  100%=      5-min Rain = 0
KCL1 221157Z 13007KT 00/00 A2991 RMK A01 T00030003  RH  100%=      5-min Rain = 0
KCL1 221158Z 13008KT 00/00 A2991 RMK A01 T00030003  RH  100%=      5-min Rain = 0
KCL1 221159Z 12006KT 00/00 A2991 RMK A01 T00030003  RH  100%=      5-min Rain = 0
KCL1 221200Z 12006KT 00/00 A2991 RMK A01 T00030003  RH  100%=      5-min Rain = 0
KCL1 221201Z 12008KT 00/00 A2991 RMK A01 T00030003  RH  100%=      5-min Rain = 0
KCL1 221202Z 13007KT 00/00 A2991 RMK A01 T00030003  RH  100%=      5-min Rain = 0
KCL1 221203Z 13010KT 00/00 A2991 RMK A01 T00030003  RH  100%=      5-min Rain = 0
KCL1 221204Z 13008KT 00/00 A2991 RMK A01 T00030003  RH  100%=      5-min Rain = 0
KCL1 221205Z 13007KT 00/00 A2991 RMK A01 T00030003  RH  100%=      5-min Rain = 0
KCL1 221206Z 13008KT 00/00 A2991 RMK A01 T00030003  RH  100%=      5-min Rain = 0
KCL1 221207Z 13008KT 00/00 A2991 RMK A01 T00030003  RH  100%=      5-min Rain = 0
KCL1 221208Z 12009KT 00/00 A2991 RMK A01 T00030003  RH  100%=      5-min Rain = 0
KCL1 221209Z 12008KT 00/00 A2991 RMK A01 T00030003  RH  100%=      5-min Rain = 0
KCL1 221210Z 12009KT 00/00 A2991 RMK A01 T00030003  RH  100%=      5-min Rain = 0
KCL1 221211Z 13009KT 00/00 A2991 RMK A01 T00030003  RH  100%=      5-min Rain = 0
KCL1 221212Z 13010KT 00/00 A2991 RMK A01 T00030003  RH  100%=      5-min Rain = 0
KCL1 221213Z 13010KT 00/00 A2991 RMK A01 T00030003  RH  100%=      5-min Rain = 0
KCL1 221214Z 13010KT 00/00 A299 RMK A01 T00030003  RH  100%=      5-min Rain = 0
KCL1 221215Z 13009KT 00/00 A2991 RMK A01 T00030003  RH  100%=      5-min Rain = 0
KCL1 221216Z 12008KT 00/00 A2991 RMK A01 T00030003  RH  100%=      5-min Rain = 0
KCL1 221217Z 12010KT 00/00 A2991 RMK A01 T00030002  RH  100%=      5-min Rain = 0
KCL1 221218Z 13011KT 00/00 A2991 RMK A01 T00030002  RH  100%=      5-min Rain = 0
KCL1 221219Z 12011KT 00/00 A2991 RMK A01 T00030003  RH  100%=      5-min Rain = 0
KCL1 221220Z 12008KT 00/00 A2991 RMK A01 T00030003  RH  100%=      5-min Rain = 0
KCL1 221221Z 13010KT 00/00 A299 RMK A01 T00030002  RH  100%=      5-min Rain = 0
KCL1 221222Z 12011KT 00/00 A299 RMK A01 T00030003  RH  100%=      5-min Rain = 0
KCL1 221223Z 12010KT 00/00 A299 RMK A01 T00030003  RH  100%=      5-min Rain = 0
KCL1 221224Z 13010KT 00/00 A299 RMK A01 T00030003  RH  100%=      5-min Rain = 0
KCL1 221225Z 12012KT 00/00 A299 RMK A01 T00030003  RH  100%=      5-min Rain = 0
KCL1 221226Z 13010KT 00/00 A2991 RMK A01 T00030003  RH  100%=      5-min Rain = 0
KCL1 221227Z 13008KT 00/00 A2991 RMK A01 T00030002  RH  100%=      5-min Rain = 0
KCL1 221228Z 13008KT 00/00 A2991 RMK A01 T00020002  RH  100%=      5-min Rain = 0
KCL1 221229Z 12010KT 00/00 A2991 RMK A01 T00030003  RH  100%=      5-min Rain = 0
KCL1 221230Z 13008KT 00/00 A2991 RMK A01 T00020002  RH  100%=      5-min Rain = 0
KCL1 221231Z 12008KT 00/00 A2991 RMK A01 T00030003  RH  100%=      5-min Rain = 0
KCL1 221232Z 12009KT 00/00 A2991 RMK A01 T00030003  RH  100%=      5-min Rain = 0
KCL1 221233Z 13009KT 00/00 A2991 RMK A01 T00030003  RH  100%=      5-min Rain = 0
KCL1 221234Z 13010KT 00/00 A2991 RMK A01 T00030003  RH  100%=      5-min Rain = 0
KCL1 221235Z 12008KT 00/00 A2991 RMK A01 T00030003  RH  100%=      5-min Rain = 0
KCL1 221236Z 13008KT 00/00 A2991 RMK A01 T00030003  RH  100%=      5-min Rain = 0
KCL1 221237Z 13009KT 00/00 A2991 RMK A01 T00030003  RH  100%=      5-min Rain = 0
KCL1 221238Z 13008KT 00/00 A2991 RMK A01 T00030003  RH  100%=      5-min Rain = 0
KCL1 221239Z 13008KT 00/00 A2991 RMK A01 T00030003  RH  100%=      5-min Rain = 0
KCL1 221240Z 13008KT 00/00 A2991 RMK A01 T00030003  RH  100%=      5-min Rain = 0
KCL1 221241Z 12009KT 00/00 A2991 RMK A01 T00030003  RH  100%=      5-min Rain = 0
KCL1 221242Z 12011KT 00/00 A2991 RMK A01 T00030003  RH  100%=      5-min Rain = 0
KCL1 221243Z 13011KT 00/00 A2991 RMK A01 T00030003  RH  100%=      5-min Rain = 0
KCL1 221244Z 13009KT 00/00 A2991 RMK A01 T00030003  RH  100%=      5-min Rain = 0
KCL1 221245Z 13007KT 00/00 A2991 RMK A01 T00030003  RH  100%=      5-min Rain = 0
KCL1 221246Z 13006KT 00/00 A2991 RMK A01 T00030003  RH  100%=      5-min Rain = 0
KCL1 221247Z 13009KT 00/00 A2991 RMK A01 T00030003  RH  100%=      5-min Rain = 0
KCL1 221248Z 13010KT 00/00 A2991 RMK A01 T00030003  RH  100%=      5-min Rain = 0
KCL1 221249Z 13008KT 00/00 A2991 RMK A01 T00040004  RH  100%=      5-min Rain = 0
KCL1 221250Z 14010KT 00/00 A2991 RMK A01 T00030003  RH  100%=      5-min Rain = 0
KCL1 221251Z 13008KT 00/00 A2992 RMK A01 T00040003  RH  100%=      5-min Rain = 0
KCL1 221252Z 14010KT 00/00 A2991 RMK A01 T00040004  RH  100%=      5-min Rain = 0
KCL1 221253Z 13011KT 00/00 A2991 RMK A01 T00040003  RH  100%=      5-min Rain = 0
KCL1 221254Z 13009KT 00/00 A2991 RMK A01 T00040004  RH  100%=      5-min Rain = 0
KCL1 221255Z 12007KT 00/00 A2992 RMK A01 T00030003  RH  100%=      5-min Rain = 0
KCL1 221256Z 13009KT 00/00 A2992 RMK A01 T00030003  RH  100%=      5-min Rain = 0
KCL1 221257Z 13008KT 00/00 A2992 RMK A01 T00040004  RH  100%=      5-min Rain = 0
KCL1 221258Z 13010KT 00/00 A2992 RMK A01 T00030003  RH  100%=      5-min Rain = 0
KCL1 221259Z 13008KT 00/00 A2992 RMK A01 T00040003  RH  100%=      5-min Rain = 0
KCL1 221300Z 13008KT 00/00 A2992 RMK A01 T00040003  RH  100%=      5-min Rain = 0
KCL1 221301Z 13007KT 00/00 A2992 RMK A01 T00040004  RH  100%=      5-min Rain = 0
KCL1 221302Z 12008KT 00/00 A2992 RMK A01 T00040003  RH  100%=      5-min Rain = 0
KCL1 221303Z 12008KT 00/00 A2992 RMK A01 T00030003  RH  100%=      5-min Rain = 0
KCL1 221304Z 12008KT 00/00 A2992 RMK A01 T00030003  RH  100%=      5-min Rain = 0
KCL1 221305Z 13007KT 00/00 A2992 RMK A01 T00040003  RH  100%=      5-min Rain = 0
KCL1 221306Z 13009KT 00/00 A2992 RMK A01 T00040004  RH  100%=      5-min Rain = 0
KCL1 221307Z 13010KT 00/00 A2992 RMK A01 T00040003  RH  100%=      5-min Rain = 0
KCL1 221308Z 13009KT 00/00 A2992 RMK A01 T00030003  RH  100%=      5-min Rain = 0
KCL1 221309Z 13008KT 00/00 A2992 RMK A01 T00040004  RH  100%=      5-min Rain = 0
KCL1 221310Z 12008KT 00/00 A2992 RMK A01 T00040003  RH  100%=      5-min Rain = 0
KCL1 221311Z 12007KT 00/00 A2992 RMK A01 T00030003  RH  100%=      5-min Rain = 0
KCL1 221312Z 12008KT 00/00 A2992 RMK A01 T00040004  RH  100%=      5-min Rain = 0
KCL1 221313Z 13010KT 00/00 A2992 RMK A01 T00040003  RH  100%=      5-min Rain = 0
KCL1 221314Z 13010KT 00/00 A2992 RMK A01 T00040003  RH  100%=      5-min Rain = 0
KCL1 221315Z 12010KT 00/00 A2992 RMK A01 T00030003  RH  100%=      5-min Rain = 0
KCL1 221316Z 12010KT 00/00 A2992 RMK A01 T00030003  RH  100%=      5-min Rain = 0
KCL1 221317Z 12008KT 00/00 A2992 RMK A01 T00030003  RH  100%=      5-min Rain = 0
KCL1 221318Z 13009KT 00/00 A2992 RMK A01 T00030003  RH  100%=      5-min Rain = 0
KCL1 221319Z 12008KT 00/00 A2992 RMK A01 T00030003  RH  100%=      5-min Rain = 0
KCL1 221320Z 12008KT 00/00 A2992 RMK A01 T00030003  RH  100%=      5-min Rain = 0
KCL1 221321Z 12009KT 00/00 A2992 RMK A01 T00040003  RH  100%=      5-min Rain = 0
KCL1 221322Z 12008KT 00/00 A2992 RMK A01 T00040003  RH  100%=      5-min Rain = 0
KCL1 221323Z 13008KT 00/00 A2992 RMK A01 T00040003  RH  100%=      5-min Rain = 0
KCL1 221324Z 13008KT 00/00 A2992 RMK A01 T00040003  RH  100%=      5-min Rain = 0
KCL1 221325Z 12007KT 00/00 A2992 RMK A01 T00040004  RH  100%=      5-min Rain = 0
KCL1 221326Z 12007KT 00/00 A2992 RMK A01 T00030003  RH  100%=      5-min Rain = 0
KCL1 221327Z 11006KT 00/00 A2992 RMK A01 T00040004  RH  100%=      5-min Rain = 0
KCL1 221328Z 11006KT 00/00 A2992 RMK A01 T00040004  RH  100%=      5-min Rain = 0
KCL1 221329Z 11006KT 00/00 A2992 RMK A01 T00040004  RH  100%=      5-min Rain = 0
KCL1 221330Z 11007KT 00/00 A2992 RMK A01 T00040004  RH  100%=      5-min Rain = 0
KCL1 221331Z 12005KT 00/00 A2992 RMK A01 T00040004  RH  100%=      5-min Rain = 0
KCL1 221332Z 12007KT 00/00 A2992 RMK A01 T00040004  RH  100%=      5-min Rain = 0
KCL1 221333Z 13006KT 01/00 A2992 RMK A01 T00050004  RH  100%=      5-min Rain = 0
KCL1 221334Z 11007KT 00/00 A2992 RMK A01 T00040004  RH  100%=      5-min Rain = 0
KCL1 221335Z 12007KT 01/00 A2992 RMK A01 T00050004  RH  100%=      5-min Rain = 0
KCL1 221336Z 12008KT 00/00 A2992 RMK A01 T00040004  RH  100%=      5-min Rain = 0
KCL1 221337Z 12009KT 01/00 A2992 RMK A01 T00050004  RH  100%=      5-min Rain = 0
KCL1 221338Z 11008KT 00/00 A2992 RMK A01 T00040004  RH  100%=      5-min Rain = 0
KCL1 221339Z 11008KT 01/01 A2992 RMK A01 T00050005  RH  100%=      5-min Rain = 0
KCL1 221340Z 12009KT 01/01 A2992 RMK A01 T00050005  RH  100%=      5-min Rain = 0
KCL1 221341Z 11008KT 01/01 A2992 RMK A01 T00050005  RH  100%=      5-min Rain = 0
KCL1 221342Z 11007KT 01/01 A2992 RMK A01 T00050005  RH  100%=      5-min Rain = 0
KCL1 221343Z 12007KT 01/01 A2992 RMK A01 T00050005  RH  100%=      5-min Rain = 0
KCL1 221344Z 12007KT 01/01 A2993 RMK A01 T00050005  RH  100%=      5-min Rain = 0
KCL1 221345Z 13007KT 01/01 A2993 RMK A01 T00050005  RH  100%=      5-min Rain = 0
KCL1 221346Z 13006KT 01/01 A2993 RMK A01 T00060005  RH  100%=      5-min Rain = 0
KCL1 221347Z 13007KT 01/01 A2993 RMK A01 T00050005  RH  100%=      5-min Rain = 0
KCL1 221348Z 13009KT 01/01 A2993 RMK A01 T00060006  RH  100%=      5-min Rain = 0
KCL1 221349Z 12010KT 01/01 A2993 RMK A01 T00060006  RH  100%=      5-min Rain = 0
KCL1 221350Z 12011KT 01/01 A2993 RMK A01 T00060006  RH  100%=      5-min Rain = 0
KCL1 221351Z 13013KT 01/01 A2993 RMK A01 T00060005  RH  100%=      5-min Rain = 0
KCL1 221352Z 13012KT 01/01 A2993 RMK A01 T00050005  RH  100%=      5-min Rain = 0
KCL1 221353Z 13011KT 01/01 A2993 RMK A01 T00050005  RH  100%=      5-min Rain = 0
KCL1 221354Z 13011KT 01/01 A2993 RMK A01 T00050005  RH  100%=      5-min Rain = 0
KCL1 221355Z 13014KT 01/01 A2993 RMK A01 T00050005  RH  100%=      5-min Rain = 0
KCL1 221356Z 13012KT 01/01 A2993 RMK A01 T00050005  RH  100%=      5-min Rain = 0
KCL1 221357Z 13011KT 01/01 A2993 RMK A01 T00050005  RH  100%=      5-min Rain = 0
KCL1 221358Z 13010KT 01/01 A2993 RMK A01 T00050005  RH  100%=      5-min Rain = 0
KCL1 221359Z 13008KT 01/01 A2993 RMK A01 T00050005  RH  100%=      5-min Rain = 0
KCL1 221400Z 13010KT 01/01 A2993 RMK A01 T00050005  RH  100%=      5-min Rain = 0
KCL1 221401Z 13010KT 01/01 A2993 RMK A01 T00050005  RH  100%=      5-min Rain = 0
KCL1 221402Z 13010KT 01/01 A2993 RMK A01 T00050005  RH  100%=      5-min Rain = 0
KCL1 221403Z 13009KT 01/01 A2993 RMK A01 T00050005  RH  100%=      5-min Rain = 0
KCL1 221404Z 13010KT 01/01 A2993 RMK A01 T00050005  RH  100%=      5-min Rain = 0
KCL1 221405Z 14010KT 01/01 A2994 RMK A01 T00050005  RH  100%=      5-min Rain = 0
KCL1 221406Z 14010KT 01/01 A2994 RMK A01 T00050005  RH  100%=      5-min Rain = 0
KCL1 221407Z 14009KT 01/01 A2994 RMK A01 T00050005  RH  100%=      5-min Rain = 0
KCL1 221408Z 15011KT 01/01 A2994 RMK A01 T00050005  RH  100%=      5-min Rain = 0
KCL1 221409Z 14009KT 01/01 A2994 RMK A01 T00050005  RH  100%=      5-min Rain = 0
KCL1 221410Z 14011KT 01/01 A2994 RMK A01 T00050005  RH  100%=      5-min Rain = 0
KCL1 221411Z 14010KT 01/01 A2994 RMK A01 T00060006  RH  100%=      5-min Rain = 0
KCL1 221412Z 14011KT 01/01 A2995 RMK A01 T00050005  RH  100%=      5-min Rain = 0
KCL1 221413Z 14013KT 01/01 A2995 RMK A01 T00050005  RH  100%=      5-min Rain = 0
KCL1 221414Z 15010KT 01/01 A2995 RMK A01 T00050005  RH  100%=      5-min Rain = 0
KCL1 221415Z 14010KT 01/01 A2995 RMK A01 T00050005  RH  100%=      5-min Rain = 0
KCL1 221416Z 14012KT 01/01 A2995 RMK A01 T00060006  RH  100%=      5-min Rain = 0
KCL1 221417Z 13013KT 01/01 A2995 RMK A01 T00050005  RH  100%=      5-min Rain = 0
KCL1 221418Z 14013KT 01/01 A2995 RMK A01 T00060005  RH  100%=      5-min Rain = 0
KCL1 221419Z 14013KT 01/01 A2995 RMK A01 T00050005  RH  100%=      5-min Rain = 0
KCL1 221420Z 14012KT 01/01 A2995 RMK A01 T00050005  RH  100%=      5-min Rain = 0
KCL1 221421Z 14011KT 01/01 A2995 RMK A01 T00050005  RH  100%=      5-min Rain = 0
KCL1 221422Z 13010KT 01/01 A2995 RMK A01 T00050005  RH  100%=      5-min Rain = 0
KCL1 221423Z 13011KT 01/01 A2995 RMK A01 T00050005  RH  100%=      5-min Rain = 0
KCL1 221424Z 13012KT 01/01 A2995 RMK A01 T00050005  RH  100%=      5-min Rain = 0
KCL1 221425Z 13011KT 01/01 A2995 RMK A01 T00060006  RH  100%=      5-min Rain = 0
KCL1 221426Z 14009KT 01/01 A2995 RMK A01 T00050005  RH  100%=      5-min Rain = 0
KCL1 221427Z 14008KT 01/01 A2995 RMK A01 T00050005  RH  100%=      5-min Rain = 0
KCL1 221428Z 15007KT 01/01 A2996 RMK A01 T00060005  RH  100%=      5-min Rain = 0
KCL1 221429Z 14008KT 01/01 A2995 RMK A01 T00060006  RH  100%=      5-min Rain = 0
KCL1 221430Z 13008KT 01/01 A2995 RMK A01 T00060006  RH  100%=      5-min Rain = 0
KCL1 221431Z 13010KT 01/01 A2995 RMK A01 T00060006  RH  100%=      5-min Rain = 0
KCL1 221432Z 12010KT 01/01 A2995 RMK A01 T00060006  RH  100%=      5-min Rain = 0
KCL1 221433Z 13007KT 01/01 A2996 RMK A01 T00060006  RH  100%=      5-min Rain = 0
KCL1 221434Z 15007KT 01/01 A2996 RMK A01 T00070007  RH  100%=      5-min Rain = 0
KCL1 221435Z 14008KT 01/01 A2996 RMK A01 T00070007  RH  100%=      5-min Rain = 0
KCL1 221436Z 14009KT 01/01 A2996 RMK A01 T00070007  RH  100%=      5-min Rain = 0
KCL1 221437Z 14007KT 01/01 A2996 RMK A01 T00070007  RH  100%=      5-min Rain = 0
KCL1 221438Z 14010KT 01/01 A2996 RMK A01 T00070007  RH  100%=      5-min Rain = 0
KCL1 221439Z 14010KT 01/01 A2996 RMK A01 T00070007  RH  100%=      5-min Rain = 0
KCL1 221440Z 15009KT 01/01 A2996 RMK A01 T00070007  RH  100%=      5-min Rain = 0
KCL1 221441Z 14009KT 01/01 A2996 RMK A01 T00070007  RH  100%=      5-min Rain = 0
KCL1 221442Z 13010KT 01/01 A2996 RMK A01 T00070007  RH  100%=      5-min Rain = 0
KCL1 221443Z 13011KT 01/01 A2996 RMK A01 T00070007  RH  100%=      5-min Rain = 0
KCL1 221444Z 13011KT 01/01 A2996 RMK A01 T00070007  RH  100%=      5-min Rain = 0
KCL1 221445Z 13012KT 01/01 A2996 RMK A01 T00080008  RH  100%=      5-min Rain = 0
KCL1 221446Z 14012KT 01/01 A2996 RMK A01 T00080008  RH  100%=      5-min Rain = 0
KCL1 221447Z 14012KT 01/01 A2996 RMK A01 T00080008  RH  100%=      5-min Rain = 0
KCL1 221448Z 15012KT 01/01 A2996 RMK A01 T00080008  RH  100%=      5-min Rain = 0
KCL1 221449Z 15009KT 01/01 A2996 RMK A01 T00080008  RH  100%=      5-min Rain = 0
KCL1 221450Z 15007KT 01/01 A2996 RMK A01 T00080008  RH  100%=      5-min Rain = 0
KCL1 221451Z 14007G12KT 01/01 A2996 RMK A01 T00080008  RH  100%=      5-min Rain = 0
KCL1 221452Z 14011KT 01/01 A2996 RMK A01 T00090008  RH  100%=      5-min Rain = 0
KCL1 221453Z 14011KT 01/01 A2996 RMK A01 T00090009  RH  100%=      5-min Rain = 0
KCL1 221454Z 14012KT 01/01 A2996 RMK A01 T00090009  RH  100%=      5-min Rain = 0
KCL1 221455Z 14011KT 01/01 A2997 RMK A01 T00080008  RH  100%=      5-min Rain = 0
KCL1 221456Z 13010KT 01/01 A2997 RMK A01 T00080008  RH  100%=      5-min Rain = 0
KCL1 221457Z 14012KT 01/01 A2997 RMK A01 T00090008  RH  100%=      5-min Rain = 0
KCL1 221458Z 14012KT 01/01 A2997 RMK A01 T00090009  RH  100%=      5-min Rain = 0
KCL1 221459Z 14011KT 01/01 A2997 RMK A01 T00080008  RH  100%=      5-min Rain = 0
KCL1 221500Z 14010KT 01/01 A2997 RMK A01 T00090009  RH  100%=      5-min Rain = 0
KCL1 221501Z 14010KT 01/01 A2997 RMK A01 T00090009  RH  100%=      5-min Rain = 0
KCL1 221502Z 14010KT 01/01 A2997 RMK A01 T00090009  RH  100%=      5-min Rain = 0
KCL1 221503Z 14010KT 01/01 A2997 RMK A01 T00090009  RH  100%=      5-min Rain = 0
KCL1 221504Z 14012KT 01/01 A2997 RMK A01 T00090009  RH  100%=      5-min Rain = 0
KCL1 221505Z 14010KT 01/01 A2997 RMK A01 T00090009  RH  100%=      5-min Rain = 0
KCL1 221506Z 14010KT 01/01 A2997 RMK A01 T00090009  RH  100%=      5-min Rain = 0
KCL1 221507Z 14007KT 01/01 A2997 RMK A01 T00090009  RH  100%=      5-min Rain = 0
KCL1 221508Z 13008KT 01/01 A2997 RMK A01 T00100010  RH  100%=      5-min Rain = 0
KCL1 221509Z 14007KT 01/01 A2997 RMK A01 T00100010  RH  100%=      5-min Rain = 0
KCL1 221510Z 14008KT 01/01 A2997 RMK A01 T00110010  RH  100%=      5-min Rain = 0
KCL1 221511Z 14007KT 01/01 A2997 RMK A01 T00100010  RH  100%=      5-min Rain = 0
KCL1 221512Z 13008KT 01/01 A2997 RMK A01 T00110011  RH  100%=      5-min Rain = 0
KCL1 221513Z 13009KT 01/01 A2997 RMK A01 T00110011  RH  100%=      5-min Rain = 0
KCL1 221514Z 13011KT 01/01 A2997 RMK A01 T00110011  RH  100%=      5-min Rain = 0
KCL1 221515Z 13008KT 01/01 A2997 RMK A01 T00110011  RH  100%=      5-min Rain = 0
KCL1 221516Z 14011KT 01/01 A2997 RMK A01 T00110011  RH  100%=      5-min Rain = 0
KCL1 221517Z 13011KT 01/01 A2997 RMK A01 T00120012  RH  100%=      5-min Rain = 0
KCL1 221518Z 13014KT 01/01 A2997 RMK A01 T00110011  RH  100%=      5-min Rain = 0
KCL1 221519Z 13012KT 01/01 A2997 RMK A01 T00110011  RH  100%=      5-min Rain = 0
KCL1 221520Z 13011KT 01/01 A2997 RMK A01 T00110011  RH  100%=      5-min Rain = 0
KCL1 221521Z 13012KT 01/01 A2997 RMK A01 T00110011  RH  100%=      5-min Rain = 0
KCL1 221522Z 13011KT 01/01 A2997 RMK A01 T00110011  RH  100%=      5-min Rain = 0
KCL1 221523Z 12011KT 01/01 A2997 RMK A01 T00110011  RH  100%=      5-min Rain = 0
KCL1 221524Z 13013KT 01/01 A2997 RMK A01 T00110011  RH  100%=      5-min Rain = 0
KCL1 221525Z 13014KT 01/01 A2996 RMK A01 T00110011  RH  100%=      5-min Rain = 0
KCL1 221526Z 13010KT 01/01 A2996 RMK A01 T00110011  RH  100%=      5-min Rain = 0
KCL1 221527Z 13011KT 01/01 A2996 RMK A01 T00120012  RH  100%=      5-min Rain = 0
KCL1 221528Z 13013KT 01/01 A2996 RMK A01 T00120012  RH  100%=      5-min Rain = 0
KCL1 221529Z 13014KT 01/01 A2996 RMK A01 T00120012  RH  100%=      5-min Rain = 0
KCL1 221530Z 13012KT 01/01 A2996 RMK A01 T00120012  RH  100%=      5-min Rain = 0
KCL1 221531Z 13013KT 01/01 A2996 RMK A01 T00120012  RH  100%=      5-min Rain = 0
KCL1 221532Z 13012KT 01/01 A2996 RMK A01 T00120012  RH  100%=      5-min Rain = 0
KCL1 221533Z 13012KT 01/01 A2997 RMK A01 T00130013  RH  100%=      5-min Rain = 0
KCL1 221534Z 14012KT 01/01 A2997 RMK A01 T00130013  RH  100%=      5-min Rain = 0
KCL1 221535Z 14013KT 01/01 A2997 RMK A01 T00130013  RH  100%=      5-min Rain = 0
KCL1 221536Z 14012KT 01/01 A2997 RMK A01 T00120012  RH  100%=      5-min Rain = 0
KCL1 221537Z 14010KT 01/01 A2997 RMK A01 T00120012  RH  100%=      5-min Rain = 0
KCL1 221538Z 14010KT 01/01 A2997 RMK A01 T00130013  RH  100%=      5-min Rain = 0
KCL1 221539Z 13009KT 01/01 A2997 RMK A01 T00130012  RH  100%=      5-min Rain = 0
KCL1 221540Z 14009KT 01/01 A2997 RMK A01 T00130013  RH  100%=      5-min Rain = 0
KCL1 221541Z 13009KT 01/01 A2997 RMK A01 T00130013  RH  100%=      5-min Rain = 0
KCL1 221542Z 14008KT 01/01 A2997 RMK A01 T00130013  RH  100%=      5-min Rain = 0
KCL1 221543Z 15007KT 01/01 A2997 RMK A01 T00130013  RH  100%=      5-min Rain = 0
KCL1 221544Z 14007KT 01/01 A2997 RMK A01 T00130013  RH  100%=      5-min Rain = 0
KCL1 221545Z 14006KT 01/01 A2997 RMK A01 T00140014  RH  100%=      5-min Rain = 0
KCL1 221546Z 13007KT 01/01 A2997 RMK A01 T00140014  RH  100%=      5-min Rain = 0
KCL1 221547Z 14006KT 01/01 A2997 RMK A01 T00140014  RH  100%=      5-min Rain = 0
KCL1 221548Z 14007KT 01/01 A2997 RMK A01 T00140014  RH  100%=      5-min Rain = 0
KCL1 221549Z 14006KT 02/01 A2997 RMK A01 T00150014  RH  100%=      5-min Rain = 0
KCL1 221550Z 14008KT 01/01 A2997 RMK A01 T00140014  RH  100%=      5-min Rain = 0
KCL1 221551Z 14006KT 01/01 A2997 RMK A01 T00140014  RH  100%=      5-min Rain = 0
KCL1 221552Z 13007KT 01/01 A2997 RMK A01 T00140014  RH  100%=      5-min Rain = 0
KCL1 221553Z 14007KT 02/01 A2997 RMK A01 T00150014  RH  100%=      5-min Rain = 0
KCL1 221554Z 15005KT 02/01 A2998 RMK A01 T00150014  RH  100%=      5-min Rain = 0
KCL1 221555Z 15004KT 02/02 A2998 RMK A01 T00150015  RH  100%=      5-min Rain = 0
KCL1 221556Z 16003KT 02/02 A2998 RMK A01 T00150015  RH  100%=      5-min Rain = 0
KCL1 221557Z 15004KT 02/02 A2998 RMK A01 T00160015  RH  100%=      5-min Rain = 0
KCL1 221558Z 16004KT 02/02 A2998 RMK A01 T00150015  RH  100%=      5-min Rain = 0
KCL1 221559Z 18004KT 02/02 A2998 RMK A01 T00150015  RH  100%=      5-min Rain = 0
KCL1 221600Z 17004KT 02/02 A2998 RMK A01 T00160015  RH  100%=      5-min Rain = 0
KCL1 221601Z 14004KT 02/02 A2998 RMK A01 T00160016  RH  100%=      5-min Rain = 0
KCL1 221602Z 13005KT 02/02 A2998 RMK A01 T00160016  RH  100%=      5-min Rain = 0
KCL1 221603Z 13008KT 02/02 A2998 RMK A01 T00160016  RH  100%=      5-min Rain = 0
KCL1 221604Z 13008KT 02/02 A2998 RMK A01 T00160016  RH  100%=      5-min Rain = 0
KCL1 221605Z 13008KT 02/02 A2997 RMK A01 T00160016  RH  100%=      5-min Rain = 0
KCL1 221606Z 14007KT 02/02 A2997 RMK A01 T00160016  RH  100%=      5-min Rain = 0
KCL1 221607Z 15006KT 02/02 A2997 RMK A01 T00160016  RH  100%=      5-min Rain = 0
KCL1 221608Z 14006KT 02/02 A2997 RMK A01 T00160016  RH  100%=      5-min Rain = 0
KCL1 221609Z 14005KT 02/02 A2997 RMK A01 T00160016  RH  100%=      5-min Rain = 0
KCL1 221610Z 14006KT 02/02 A2997 RMK A01 T00160016  RH  100%=      5-min Rain = 0
KCL1 221611Z 14007KT 02/02 A2997 RMK A01 T00160016  RH  100%=      5-min Rain = 0
KCL1 221612Z 13008KT 02/02 A2997 RMK A01 T00160016  RH  100%=      5-min Rain = 0
KCL1 221613Z 14008KT 02/02 A2997 RMK A01 T00160016  RH  100%=      5-min Rain = 0
KCL1 221614Z 14008KT 02/02 A2997 RMK A01 T00160016  RH  100%=      5-min Rain = 0
KCL1 221615Z 14007KT 02/02 A2997 RMK A01 T00160016  RH  100%=      5-min Rain = 0
KCL1 221616Z 16006KT 02/02 A2997 RMK A01 T00160016  RH  100%=      5-min Rain = 0
KCL1 221617Z 16005KT 02/02 A2997 RMK A01 T00160016  RH  100%=      5-min Rain = 0
KCL1 221618Z 16006KT 02/02 A2997 RMK A01 T00170017  RH  100%=      5-min Rain = 0
KCL1 221619Z 15008KT 02/02 A2997 RMK A01 T00180018  RH  100%=      5-min Rain = 0
KCL1 221620Z 16007KT 02/02 A2997 RMK A01 T00170017  RH  100%=      5-min Rain = 0
KCL1 221621Z 14006KT 02/02 A2997 RMK A01 T00170017  RH  100%=      5-min Rain = 0
KCL1 221622Z 15006KT 02/02 A2997 RMK A01 T00170017  RH  100%=      5-min Rain = 0
KCL1 221623Z 14006KT 02/02 A2997 RMK A01 T00180018  RH  100%=      5-min Rain = 0
KCL1 221624Z 15007KT 02/02 A2997 RMK A01 T00190019  RH  100%=      5-min Rain = 0
KCL1 221625Z 14008KT 02/02 A2997 RMK A01 T00200020  RH  100%=      5-min Rain = 0
KCL1 221626Z 15007KT 02/02 A2997 RMK A01 T00200020  RH  100%=      5-min Rain = 0
KCL1 221627Z 16008KT 02/02 A2997 RMK A01 T00190019  RH  100%=      5-min Rain = 0
KCL1 221628Z 15008KT 02/02 A2997 RMK A01 T00190019  RH  100%=      5-min Rain = 0
KCL1 221629Z 15008KT 02/02 A2997 RMK A01 T00190019  RH  100%=      5-min Rain = 0
KCL1 221630Z 15009KT 02/02 A2996 RMK A01 T00180018  RH  100%=      5-min Rain = 0
KCL1 221631Z 16007KT 02/02 A2997 RMK A01 T00180018  RH  100%=      5-min Rain = 0
KCL1 221632Z 17006KT 02/02 A2997 RMK A01 T00190019  RH  100%=      5-min Rain = 0
KCL1 221633Z 16006KT 02/02 A2996 RMK A01 T00200020  RH  100%=      5-min Rain = 0
KCL1 221634Z 15007KT 02/02 A2996 RMK A01 T00200020  RH  100%=      5-min Rain = 0
KCL1 221635Z 15007KT 02/02 A2996 RMK A01 T00200020  RH  100%=      5-min Rain = 0
KCL1 221636Z 15007KT 02/02 A2996 RMK A01 T00200020  RH  100%=      5-min Rain = 0
KCL1 221637Z 15006KT 02/02 A2996 RMK A01 T00200020  RH  100%=      5-min Rain = 0
KCL1 221638Z 15006KT 02/02 A2996 RMK A01 T00210021  RH  100%=      5-min Rain = 0
KCL1 221639Z 15007KT 02/02 A2996 RMK A01 T00220021  RH  100%=      5-min Rain = 0
KCL1 221640Z 14008KT 02/02 A2996 RMK A01 T00210021  RH  100%=      5-min Rain = 0
KCL1 221641Z 14009KT 02/02 A2996 RMK A01 T00200020  RH  100%=      5-min Rain = 0
KCL1 221642Z 15006KT 02/02 A2996 RMK A01 T00200020  RH  100%=      5-min Rain = 0
KCL1 221643Z 15006KT 02/02 A2996 RMK A01 T00200020  RH  100%=      5-min Rain = 0
KCL1 221644Z 15005KT 02/02 A2996 RMK A01 T00210021  RH  100%=      5-min Rain = 0
KCL1 221645Z 16004KT 02/02 A2996 RMK A01 T00210021  RH  100%=      5-min Rain = 0
KCL1 221646Z 16004KT 02/02 A2996 RMK A01 T00210021  RH  100%=      5-min Rain = 0
KCL1 221647Z 17005KT 02/02 A2996 RMK A01 T00210021  RH  100%=      5-min Rain = 0
KCL1 221648Z 15005KT 02/02 A2996 RMK A01 T00220022  RH  100%=      5-min Rain = 0
KCL1 221649Z 16005KT 02/02 A2996 RMK A01 T00230023  RH  100%=      5-min Rain = 0
KCL1 221650Z 16007KT 02/02 A2996 RMK A01 T00230023  RH  100%=      5-min Rain = 0
KCL1 221651Z 17007KT 02/02 A2996 RMK A01 T00220022  RH  100%=      5-min Rain = 0
KCL1 221652Z 17006KT 02/02 A2996 RMK A01 T00210021  RH  100%=      5-min Rain = 0
KCL1 221653Z 17006KT 02/02 A2996 RMK A01 T00200020  RH  100%=      5-min Rain = 0
KCL1 221654Z 17006KT 02/02 A2996 RMK A01 T00200020  RH  100%=      5-min Rain = 0
KCL1 221655Z 14006KT 02/02 A2996 RMK A01 T00210021  RH  100%=      5-min Rain = 0
KCL1 221656Z 17007KT 02/02 A2996 RMK A01 T00220022  RH  100%=      5-min Rain = 0
KCL1 221657Z 19005KT 02/02 A2996 RMK A01 T00220022  RH  100%=      5-min Rain = 0
KCL1 221658Z 15004KT 02/02 A2996 RMK A01 T00210021  RH  100%=      5-min Rain = 0
KCL1 221659Z 15006KT 02/02 A2996 RMK A01 T00210021  RH  100%=      5-min Rain = 0
KCL1 221700Z 16007KT 02/02 A2996 RMK A01 T00210021  RH  100%=      5-min Rain = 0
KCL1 221701Z 16006KT 02/02 A2995 RMK A01 T00220022  RH  100%=      5-min Rain = 0
KCL1 221702Z 16006KT 02/02 A2995 RMK A01 T00220022  RH  100%=      5-min Rain = 0
KCL1 221703Z 17006KT 02/02 A2995 RMK A01 T00220022  RH  100%=      5-min Rain = 0
KCL1 221704Z 16007KT 02/02 A2995 RMK A01 T00230022  RH  100%=      5-min Rain = 0
KCL1 221705Z 15007KT 02/02 A2995 RMK A01 T00230023  RH  100%=      5-min Rain = 0
KCL1 221706Z 16007KT 02/02 A2995 RMK A01 T00230023  RH  100%=      5-min Rain = 0
KCL1 221707Z 17006KT 02/02 A2995 RMK A01 T00220022  RH  100%=      5-min Rain = 0
KCL1 221708Z 16006KT 02/02 A2995 RMK A01 T00220022  RH  100%=      5-min Rain = 0
KCL1 221709Z 16007KT 02/02 A2995 RMK A01 T00230023  RH  100%=      5-min Rain = 0
KCL1 221710Z 16005KT 02/02 A2995 RMK A01 T00230023  RH  100%=      5-min Rain = 0
KCL1 221711Z 15005KT 02/02 A2995 RMK A01 T00230023  RH  100%=      5-min Rain = 0
KCL1 221712Z 16004KT 02/02 A2995 RMK A01 T00240024  RH  100%=      5-min Rain = 0
KCL1 221713Z 18005KT 03/03 A2995 RMK A01 T00250025  RH  100%=      5-min Rain = 0
KCL1 221714Z 18003KT 03/03 A2995 RMK A01 T00260026  RH  100%=      5-min Rain = 0
KCL1 221715Z 19004KT 03/03 A2995 RMK A01 T00260026  RH  100%=      5-min Rain = 0
KCL1 221716Z 19005KT 03/03 A2995 RMK A01 T00250025  RH  100%=      5-min Rain = 0
KCL1 221717Z 18005KT 03/03 A2995 RMK A01 T00250025  RH  100%=      5-min Rain = 0
KCL1 221718Z 18007KT 03/03 A2995 RMK A01 T00250025  RH  100%=      5-min Rain = 0
KCL1 221719Z 17005KT 02/02 A2995 RMK A01 T00240024  RH  100%=      5-min Rain = 0
KCL1 221720Z 18004KT 02/02 A2995 RMK A01 T00240024  RH  100%=      5-min Rain = 0
KCL1 221721Z 18004KT 02/02 A2995 RMK A01 T00240024  RH  100%=      5-min Rain = 0
KCL1 221722Z 18004KT 02/02 A2995 RMK A01 T00240024  RH  100%=      5-min Rain = 0
KCL1 221723Z 19004KT 03/03 A2995 RMK A01 T00250025  RH  100%=      5-min Rain = 0
KCL1 221724Z 19005KT 03/03 A2995 RMK A01 T00250025  RH  100%=      5-min Rain = 0
KCL1 221725Z 20004KT 03/02 A2995 RMK A01 T00250024  RH  100%=      5-min Rain = 0
KCL1 221726Z 20004KT 02/02 A2995 RMK A01 T00240024  RH  100%=      5-min Rain = 0
KCL1 221727Z 19006KT 02/02 A2995 RMK A01 T00240024  RH  100%=      5-min Rain = 0
KCL1 221728Z 17004KT 02/02 A2995 RMK A01 T00240024  RH  100%=      5-min Rain = 0
KCL1 221729Z 18004KT 03/03 A2995 RMK A01 T00250025  RH  100%=      5-min Rain = 0
KCL1 221730Z 19003KT 03/03 A2995 RMK A01 T00260026  RH  100%=      5-min Rain = 0
KCL1 221731Z 19004KT 03/03 A2995 RMK A01 T00280028  RH  100%=      5-min Rain = 0
KCL1 221732Z 18003KT 03/03 A2995 RMK A01 T00270027  RH  100%=      5-min Rain = 0
KCL1 221733Z 18004KT 03/03 A2995 RMK A01 T00260026  RH  100%=      5-min Rain = 0
KCL1 221734Z 19004KT 03/03 A2995 RMK A01 T00260026  RH  100%=      5-min Rain = 0
KCL1 221735Z 18003KT 03/03 A2995 RMK A01 T00260026  RH  100%=      5-min Rain = 0
KCL1 221736Z 16006KT 03/03 A2995 RMK A01 T00270027  RH  100%=      5-min Rain = 0
KCL1 221737Z 15004KT 03/03 A2995 RMK A01 T00280028  RH  100%=      5-min Rain = 0
KCL1 221738Z 20004KT 03/03 A2995 RMK A01 T00290029  RH  100%=      5-min Rain = 0
KCL1 221739Z 19005KT 03/03 A2995 RMK A01 T00290029  RH  100%=      5-min Rain = 0
KCL1 221740Z 18005KT 03/03 A2994 RMK A01 T00290029  RH  100%=      5-min Rain = 0
KCL1 221741Z 16005KT 03/03 A2994 RMK A01 T00290029  RH  100%=      5-min Rain = 0
KCL1 221742Z 16005KT 03/03 A2994 RMK A01 T00290029  RH  100%=      5-min Rain = 0
KCL1 221743Z 15005KT 03/03 A2994 RMK A01 T00290029  RH  100%=      5-min Rain = 0
KCL1 221744Z 16004KT 03/03 A2994 RMK A01 T00290029  RH  100%=      5-min Rain = 0
KCL1 221745Z 17004KT 03/03 A2994 RMK A01 T00300030  RH  100%=      5-min Rain = 0
KCL1 221746Z 16004KT 03/03 A2994 RMK A01 T00300030  RH  100%=      5-min Rain = 0
KCL1 221747Z 16004KT 03/03 A2994 RMK A01 T00290029  RH  100%=      5-min Rain = 0
KCL1 221748Z 14006KT 03/03 A2994 RMK A01 T00280028  RH  100%=      5-min Rain = 0
KCL1 221749Z 14006KT 03/03 A2994 RMK A01 T00280028  RH  100%=      5-min Rain = 0
KCL1 221750Z 13006KT 03/03 A2994 RMK A01 T00280028  RH  100%=      5-min Rain = 0
KCL1 221751Z 12006KT 03/03 A2994 RMK A01 T00290029  RH  100%=      5-min Rain = 0
KCL1 221752Z 12008KT 03/03 A2994 RMK A01 T00290029  RH  100%=      5-min Rain = 0
KCL1 221753Z 12008KT 03/03 A2994 RMK A01 T00290029  RH  100%=      5-min Rain = 0
KCL1 221754Z 13009KT 03/03 A2994 RMK A01 T00290029  RH  100%=      5-min Rain = 0
KCL1 221755Z 14007KT 03/03 A2994 RMK A01 T00290029  RH  100%=      5-min Rain = 0
KCL1 221756Z 14008KT 03/03 A2994 RMK A01 T00280028  RH  100%=      5-min Rain = 0
KCL1 221757Z 13008KT 03/03 A2994 RMK A01 T00290029  RH  100%=      5-min Rain = 0
KCL1 221758Z 14008KT 03/03 A2994 RMK A01 T00290029  RH  100%=      5-min Rain = 0
KCL1 221759Z 14007KT 03/03 A2994 RMK A01 T00290029  RH  100%=      5-min Rain = 0
KCL1 221800Z 13008KT 03/03 A2994 RMK A01 T00300030  RH  100%=      5-min Rain = 0
KCL1 221801Z 13008KT 03/03 A2994 RMK A01 T00300030  RH  100%=      5-min Rain = 0
KCL1 221802Z 13008KT 03/03 A2994 RMK A01 T00300030  RH  100%=      5-min Rain = 0
KCL1 221803Z 13007KT 03/03 A2994 RMK A01 T00300030  RH  100%=      5-min Rain = 0
KCL1 221804Z 13007KT 03/03 A2994 RMK A01 T00300030  RH  100%=      5-min Rain = 0
KCL1 221805Z 13008KT 03/03 A2994 RMK A01 T00300030  RH  100%=      5-min Rain = 0
KCL1 221806Z 14007KT 03/03 A2994 RMK A01 T00300030  RH  100%=      5-min Rain = 0
KCL1 221807Z 14006KT 03/03 A2994 RMK A01 T00300030  RH  100%=      5-min Rain = 0
KCL1 221808Z 12008KT 03/03 A2993 RMK A01 T00310031  RH  100%=      5-min Rain = 0
KCL1 221809Z 13008KT 03/03 A2993 RMK A01 T00310031  RH  100%=      5-min Rain = 0
KCL1 221810Z 12007KT 03/03 A2993 RMK A01 T00310031  RH  100%=      5-min Rain = 0
KCL1 221811Z 12008KT 03/03 A2993 RMK A01 T00310031  RH  100%=      5-min Rain = 0
KCL1 221812Z 14008KT 03/03 A2993 RMK A01 T00300030  RH  100%=      5-min Rain = 0
KCL1 221813Z 15007KT 03/03 A2993 RMK A01 T00320031  RH  100%=      5-min Rain = 0
KCL1 221814Z 13006KT 03/03 A2993 RMK A01 T00320032  RH  100%=      5-min Rain = 0
KCL1 221815Z 12008KT 03/03 A2993 RMK A01 T00320032  RH  100%=      5-min Rain = 0
KCL1 221816Z 13009KT 03/03 A2993 RMK A01 T00320032  RH  100%=      5-min Rain = 0
KCL1 221817Z 13005KT 03/03 A2993 RMK A01 T00320032  RH  100%=      5-min Rain = 0
KCL1 221818Z 13006KT 03/03 A2993 RMK A01 T00340034  RH  100%=      5-min Rain = 0
KCL1 221819Z 13008KT 04/04 A2993 RMK A01 T00360036  RH  100%=      5-min Rain = 0
KCL1 221820Z 14008KT 04/04 A2992 RMK A01 T00370037  RH  100%=      5-min Rain = 0
KCL1 221821Z 14009KT 04/04 A2992 RMK A01 T00360036  RH  100%=      5-min Rain = 0
KCL1 221822Z 14009KT 04/04 A2992 RMK A01 T00360036  RH  100%=      5-min Rain = 0
KCL1 221823Z 15008KT 03/03 A2992 RMK A01 T00340034  RH  100%=      5-min Rain = 0
KCL1 221824Z 14007KT 03/03 A2993 RMK A01 T00340034  RH  100%=      5-min Rain = 0
KCL1 221825Z 14007KT 03/03 A2993 RMK A01 T00340034  RH  100%=      5-min Rain = 0
KCL1 221826Z 15008KT 04/04 A2992 RMK A01 T00350035  RH  100%=      5-min Rain = 0
KCL1 221827Z 14007KT 04/04 A2992 RMK A01 T00360036  RH  100%=      5-min Rain = 0
KCL1 221828Z 15007KT 04/04 A2992 RMK A01 T00370037  RH  100%=      5-min Rain = 0
KCL1 221829Z 14009KT 04/04 A2992 RMK A01 T00370037  RH  100%=      5-min Rain = 0
KCL1 221830Z 14008KT 04/04 A2992 RMK A01 T00360036  RH  100%=      5-min Rain = 0
KCL1 221831Z 14008KT 04/04 A2992 RMK A01 T00360036  RH  100%=      5-min Rain = 0
KCL1 221832Z 14009KT 04/04 A2992 RMK A01 T00370037  RH  100%=      5-min Rain = 0
KCL1 221833Z 14008KT 04/04 A2992 RMK A01 T00370036  RH  100%=      5-min Rain = 0
KCL1 221834Z 14007KT 04/04 A2992 RMK A01 T00370037  RH  100%=      5-min Rain = 0
KCL1 221835Z 13006KT 04/04 A2992 RMK A01 T00370037  RH  100%=      5-min Rain = 0
KCL1 221836Z 12007KT 04/04 A2992 RMK A01 T00370037  RH  100%=      5-min Rain = 0
KCL1 221837Z 13007KT 04/04 A2992 RMK A01 T00370037  RH  100%=      5-min Rain = 0
KCL1 221838Z 13008KT 04/04 A2992 RMK A01 T00380038  RH  100%=      5-min Rain = 0
KCL1 221839Z 14007KT 04/04 A2992 RMK A01 T00380038  RH  100%=      5-min Rain = 0
KCL1 221840Z 15007KT 04/04 A2992 RMK A01 T00370037  RH  100%=      5-min Rain = 0
KCL1 221841Z 14006KT 04/04 A2992 RMK A01 T00360036  RH  100%=      5-min Rain = 0
KCL1 221842Z 13008KT 04/04 A2991 RMK A01 T00380038  RH  100%=      5-min Rain = 0
KCL1 221843Z 14008KT 04/04 A2991 RMK A01 T00390039  RH  100%=      5-min Rain = 0
KCL1 221844Z 15007KT 04/04 A2991 RMK A01 T00380038  RH  100%=      5-min Rain = 0
KCL1 221845Z 13006KT 04/04 A2991 RMK A01 T00370037  RH  100%=      5-min Rain = 0
KCL1 221846Z 14007KT 04/04 A2991 RMK A01 T00400040  RH  100%=      5-min Rain = 0
KCL1 221847Z 14008KT 04/04 A2991 RMK A01 T00410041  RH  100%=      5-min Rain = 0
KCL1 221848Z 14008KT 04/04 A2991 RMK A01 T00400040  RH  100%=      5-min Rain = 0
KCL1 221849Z 13007KT 04/04 A2991 RMK A01 T00380038  RH  100%=      5-min Rain = 0
KCL1 221850Z 13006KT 04/04 A2991 RMK A01 T00390039  RH  100%=      5-min Rain = 0
KCL1 221851Z 13007KT 04/04 A2991 RMK A01 T00410041  RH  100%=      5-min Rain = 0
KCL1 221852Z 14008KT 04/04 A2991 RMK A01 T00420042  RH  100%=      5-min Rain = 0
KCL1 221853Z 14008KT 04/04 A2991 RMK A01 T00410041  RH  100%=      5-min Rain = 0
KCL1 221854Z 15008KT 04/04 A2991 RMK A01 T00400040  RH  100%=      5-min Rain = 0
KCL1 221855Z 14008KT 04/04 A2991 RMK A01 T00390039  RH  100%=      5-min Rain = 0
KCL1 221856Z 14007KT 04/04 A2991 RMK A01 T00410041  RH  100%=      5-min Rain = 0
KCL1 221857Z 14007KT 04/04 A2991 RMK A01 T00420042  RH  100%=      5-min Rain = 0
KCL1 221858Z 15006KT 04/04 A2991 RMK A01 T00420042  RH  100%=      5-min Rain = 0
KCL1 221859Z 15006KT 04/04 A2991 RMK A01 T00400040  RH  100%=      5-min Rain = 0
KCL1 221900Z 14007KT 04/04 A2991 RMK A01 T00400040  RH  100%=      5-min Rain = 0
KCL1 221901Z 14007KT 04/04 A299 RMK A01 T00390039  RH  100%=      5-min Rain = 0
KCL1 221902Z 14006KT 04/04 A299 RMK A01 T00390039  RH  100%=      5-min Rain = 0
KCL1 221903Z 14007KT 04/04 A299 RMK A01 T00390039  RH  100%=      5-min Rain = 0
KCL1 221904Z 16007KT 04/04 A299 RMK A01 T00420042  RH  100%=      5-min Rain = 0
KCL1 221905Z 16005KT 04/04 A299 RMK A01 T00410041  RH  100%=      5-min Rain = 0
KCL1 221906Z 15004KT 04/04 A299 RMK A01 T00410041  RH  100%=      5-min Rain = 0
KCL1 221907Z 14006KT 04/04 A299 RMK A01 T00440044  RH  100%=      5-min Rain = 0
KCL1 221908Z 14006KT 04/04 A299 RMK A01 T00440044  RH  100%=      5-min Rain = 0
KCL1 221909Z 14008KT 05/05 A2989 RMK A01 T00450045  RH  100%=      5-min Rain = 0
KCL1 221910Z 15007KT 04/04 A2989 RMK A01 T00440044  RH  100%=      5-min Rain = 0
KCL1 221911Z 14008KT 04/04 A2989 RMK A01 T00440044  RH  100%=      5-min Rain = 0
KCL1 221912Z 14008KT 04/04 A2989 RMK A01 T00440044  RH  100%=      5-min Rain = 0
KCL1 221913Z 13007KT 04/04 A2989 RMK A01 T00430043  RH  100%=      5-min Rain = 0
KCL1 221914Z 15007KT 04/04 A2989 RMK A01 T00420042  RH  100%=      5-min Rain = 0
KCL1 221915Z 13006KT 04/04 A2989 RMK A01 T00420041  RH  100%=      5-min Rain = 0
KCL1 221916Z 15007KT 04/04 A2989 RMK A01 T00420042  RH  100%=      5-min Rain = 0
KCL1 221917Z 15008KT 04/04 A2989 RMK A01 T00420042  RH  100%=      5-min Rain = 0
KCL1 221918Z 15007KT 04/04 A2989 RMK A01 T00420042  RH  100%=      5-min Rain = 0
KCL1 221919Z 15006KT 04/04 A2989 RMK A01 T00420042  RH  100%=      5-min Rain = 0
KCL1 221920Z 15006KT 04/04 A2989 RMK A01 T00430043  RH  100%=      5-min Rain = 0
KCL1 221921Z 15008KT 05/05 A2989 RMK A01 T00450045  RH  100%=      5-min Rain = 0
KCL1 221922Z 15006KT 04/04 A2989 RMK A01 T00440044  RH  100%=      5-min Rain = 0
KCL1 221923Z 16005KT 04/04 A2989 RMK A01 T00430043  RH  100%=      5-min Rain = 0
KCL1 221924Z 16006KT 04/04 A2989 RMK A01 T00430043  RH  100%=      5-min Rain = 0
KCL1 221925Z 15006KT 04/04 A2989 RMK A01 T00430043  RH  100%=      5-min Rain = 0
KCL1 221926Z 15005KT 04/04 A2989 RMK A01 T00430043  RH  100%=      5-min Rain = 0
KCL1 221927Z 15007KT 04/04 A2988 RMK A01 T00420042  RH  100%=      5-min Rain = 0
KCL1 221928Z 14006KT 04/04 A2988 RMK A01 T00420042  RH  100%=      5-min Rain = 0
KCL1 221929Z 16005KT 04/04 A2988 RMK A01 T00430043  RH  100%=      5-min Rain = 0
KCL1 221930Z 15004KT 04/04 A2988 RMK A01 T00430043  RH  100%=      5-min Rain = 0
KCL1 221931Z 16005KT 04/04 A2988 RMK A01 T00440044  RH  100%=      5-min Rain = 0
KCL1 221932Z 15005KT 05/05 A2988 RMK A01 T00460046  RH  100%=      5-min Rain = 0
KCL1 221933Z 14005KT 05/05 A2988 RMK A01 T00470047  RH  100%=      5-min Rain = 0
KCL1 221934Z 17006KT 05/05 A2988 RMK A01 T00480048  RH  100%=      5-min Rain = 0
KCL1 221935Z 15005KT 05/05 A2988 RMK A01 T00490049  RH  100%=      5-min Rain = 0
KCL1 221936Z 14007KT 05/05 A2988 RMK A01 T00490049  RH  100%=      5-min Rain = 0
KCL1 221937Z 14006KT 05/05 A2988 RMK A01 T00480048  RH  100%=      5-min Rain = 0
KCL1 221938Z 15006KT 05/05 A2988 RMK A01 T00480048  RH  100%=      5-min Rain = 0
KCL1 221939Z 14006KT 05/05 A2988 RMK A01 T00480048  RH  100%=      5-min Rain = 0
KCL1 221940Z 13006KT 05/05 A2988 RMK A01 T00480048  RH  100%=      5-min Rain = 0
KCL1 221941Z 14006KT 05/05 A2987 RMK A01 T00490049  RH  100%=      5-min Rain = 0
KCL1 221942Z 14005KT 05/05 A2987 RMK A01 T00490049  RH  100%=      5-min Rain = 0
KCL1 221943Z 14006KT 05/05 A2987 RMK A01 T00510050  RH  100%=      5-min Rain = 0
KCL1 221944Z 14008KT 05/05 A2987 RMK A01 T00510051  RH  100%=      5-min Rain = 0
KCL1 221945Z 13007KT 05/05 A2987 RMK A01 T00510051  RH  100%=      5-min Rain = 0
KCL1 221946Z 13007KT 05/05 A2987 RMK A01 T00530052  RH  100%=      5-min Rain = 0
KCL1 221947Z 13008KT 05/05 A2987 RMK A01 T00540053  RH  099%=      5-min Rain = 0
KCL1 221948Z 13006KT 06/05 A2987 RMK A01 T00550053  RH  099%=      5-min Rain = 0
KCL1 221949Z 13009KT 06/05 A2987 RMK A01 T00550052  RH  098%=      5-min Rain = 0
KCL1 221950Z 14007KT 06/05 A2987 RMK A01 T00560052  RH  098%=      5-min Rain = 0
KCL1 221951Z 13007KT 06/05 A2987 RMK A01 T00570053  RH  097%=      5-min Rain = 0
KCL1 221952Z 13009KT 06/05 A2987 RMK A01 T00570052  RH  096%=      5-min Rain = 0
KCL1 221953Z 13009KT 06/05 A2986 RMK A01 T00580052  RH  096%=      5-min Rain = 0
KCL1 221954Z 13009KT 06/05 A2986 RMK A01 T00590051  RH  095%=      5-min Rain = 0
KCL1 221955Z 13008KT 06/05 A2986 RMK A01 T00610052  RH  094%=      5-min Rain = 0
KCL1 221956Z 12007KT 06/05 A2986 RMK A01 T00620052  RH  093%=      5-min Rain = 0
KCL1 221957Z 14007KT 06/06 A2986 RMK A01 T00640055  RH  094%=      5-min Rain = 0
KCL1 221958Z 14007KT 07/06 A2986 RMK A01 T00670057  RH  093%=      5-min Rain = 0
KCL1 221959Z 13009KT 07/05 A2986 RMK A01 T00680054  RH  090%=      5-min Rain = 0
KCL1 222000Z 12009KT 07/05 A2986 RMK A01 T00680052  RH  089%=      5-min Rain = 0
KCL1 222001Z 14009KT 07/05 A2986 RMK A01 T00670050  RH  089%=      5-min Rain = 0
KCL1 222002Z 13009KT 07/05 A2986 RMK A01 T00680052  RH  089%=      5-min Rain = 0
KCL1 222003Z 14006KT 07/05 A2986 RMK A01 T00690049  RH  087%=      5-min Rain = 0
KCL1 222004Z 13007KT 07/05 A2986 RMK A01 T00700050  RH  087%=      5-min Rain = 0
KCL1 222005Z 13008KT 07/05 A2986 RMK A01 T00710050  RH  086%=      5-min Rain = 0
KCL1 222006Z 15008KT 07/05 A2986 RMK A01 T00730050  RH  086%=      5-min Rain = 0
KCL1 222007Z 15007KT 07/05 A2986 RMK A01 T00740048  RH  083%=      5-min Rain = 0
KCL1 222008Z 14006KT 07/05 A2985 RMK A01 T00740049  RH  084%=      5-min Rain = 0
KCL1 222009Z 15008KT 08/05 A2985 RMK A01 T00760049  RH  083%=      5-min Rain = 0
KCL1 222010Z 13008KT 08/05 A2985 RMK A01 T00770047  RH  081%=      5-min Rain = 0
KCL1 222011Z 13006KT 08/05 A2985 RMK A01 T00770046  RH  080%=      5-min Rain = 0
KCL1 222012Z 16004KT 08/05 A2985 RMK A01 T00790049  RH  081%=      5-min Rain = 0
KCL1 222013Z 17005KT 08/05 A2985 RMK A01 T00810047  RH  079%=      5-min Rain = 0
KCL1 222014Z 13005KT 08/05 A2985 RMK A01 T00800046  RH  079%=      5-min Rain = 0
KCL1 222015Z 13005KT 08/05 A2985 RMK A01 T00820048  RH  079%=      5-min Rain = 0
KCL1 222016Z 14004KT 09/05 A2985 RMK A01 T00850048  RH  078%=      5-min Rain = 0
KCL1 222017Z 16005KT 09/05 A2985 RMK A01 T00860047  RH  077%=      5-min Rain = 0
KCL1 222018Z 14007KT 09/05 A2985 RMK A01 T00860045  RH  076%=      5-min Rain = 0
KCL1 222019Z 15008KT 09/05 A2985 RMK A01 T00860045  RH  075%=      5-min Rain = 0
KCL1 222020Z 15006KT 09/04 A2985 RMK A01 T00850039  RH  073%=      5-min Rain = 0
KCL1 222021Z 14009KT 08/04 A2984 RMK A01 T00830040  RH  074%=      5-min Rain = 0
KCL1 222022Z 15008KT 08/04 A2984 RMK A01 T00820039  RH  074%=      5-min Rain = 0
KCL1 222023Z 15007KT 08/04 A2984 RMK A01 T00800038  RH  075%=      5-min Rain = 0
KCL1 222024Z 14005KT 08/04 A2984 RMK A01 T00810039  RH  075%=      5-min Rain = 0
KCL1 222025Z 15004KT 08/04 A2984 RMK A01 T00820038  RH  074%=      5-min Rain = 0
KCL1 222026Z 16009KT 08/04 A2984 RMK A01 T00820038  RH  074%=      5-min Rain = 0
KCL1 222027Z 15007KT 08/04 A2984 RMK A01 T00820036  RH  073%=      5-min Rain = 0
KCL1 222028Z 17007KT 08/04 A2984 RMK A01 T00830038  RH  073%=      5-min Rain = 0
KCL1 222029Z 17006KT 08/04 A2984 RMK A01 T00830037  RH  072%=      5-min Rain = 0
KCL1 222030Z 16005KT 08/04 A2984 RMK A01 T00840037  RH  072%=      5-min Rain = 0
KCL1 222031Z 16007KT 09/04 A2984 RMK A01 T00850039  RH  073%=      5-min Rain = 0
KCL1 222032Z 16006KT 09/04 A2984 RMK A01 T00870038  RH  072%=      5-min Rain = 0
KCL1 222033Z 16009KT 09/04 A2984 RMK A01 T00870037  RH  071%=      5-min Rain = 0
KCL1 222034Z 17009KT 09/04 A2984 RMK A01 T00870038  RH  071%=      5-min Rain = 0
KCL1 222035Z 18008KT 09/04 A2984 RMK A01 T00880037  RH  071%=      5-min Rain = 0
KCL1 222036Z 17006KT 09/04 A2984 RMK A01 T00870037  RH  071%=      5-min Rain = 0
KCL1 222037Z 17006KT 09/04 A2984 RMK A01 T00870037  RH  071%=      5-min Rain = 0
KCL1 222038Z 15005KT 09/04 A2984 RMK A01 T00870037  RH  071%=      5-min Rain = 0
KCL1 222039Z 15006KT 09/04 A2984 RMK A01 T00880038  RH  071%=      5-min Rain = 0
KCL1 222040Z 16006KT 09/04 A2983 RMK A01 T00890039  RH  071%=      5-min Rain = 0
KCL1 222041Z 17003KT 09/04 A2983 RMK A01 T00900038  RH  070%=      5-min Rain = 0
KCL1 222042Z 15008KT 09/04 A2983 RMK A01 T00890038  RH  070%=      5-min Rain = 0
KCL1 222043Z 15005KT 09/04 A2983 RMK A01 T00900037  RH  069%=      5-min Rain = 0
KCL1 222044Z 14007KT 09/04 A2983 RMK A01 T00890038  RH  070%=      5-min Rain = 0
KCL1 222045Z 15007KT 09/04 A2983 RMK A01 T00900038  RH  070%=      5-min Rain = 0
KCL1 222046Z 16008KT 09/04 A2983 RMK A01 T00900036  RH  069%=      5-min Rain = 0
KCL1 222047Z 18005KT 09/04 A2983 RMK A01 T00890035  RH  069%=      5-min Rain = 0
KCL1 222048Z 18006KT 09/04 A2983 RMK A01 T00890036  RH  070%=      5-min Rain = 0
KCL1 222049Z 17006KT 09/04 A2983 RMK A01 T00900037  RH  069%=      5-min Rain = 0
KCL1 222050Z 17003KT 09/04 A2983 RMK A01 T00900035  RH  069%=      5-min Rain = 0
KCL1 222051Z 18006KT 09/04 A2983 RMK A01 T00890037  RH  070%=      5-min Rain = 0
KCL1 222052Z 16008KT 09/04 A2983 RMK A01 T00910037  RH  069%=      5-min Rain = 0
KCL1 222053Z 15005KT 09/04 A2983 RMK A01 T00920036  RH  068%=      5-min Rain = 0
KCL1 222054Z 15008KT 09/04 A2983 RMK A01 T00930038  RH  068%=      5-min Rain = 0
KCL1 222055Z 14007KT 09/04 A2982 RMK A01 T00930036  RH  068%=      5-min Rain = 0
KCL1 222056Z 13007KT 09/04 A2982 RMK A01 T00940037  RH  068%=      5-min Rain = 0
KCL1 222057Z 15008G13KT 09/04 A2982 RMK A01 T00940038  RH  068%=      5-min Rain = 0
KCL1 222058Z 17009KT 10/04 A2982 RMK A01 T00960038  RH  067%=      5-min Rain = 0
KCL1 222059Z 17006KT 10/04 A2982 RMK A01 T00960035  RH  066%=      5-min Rain = 0
KCL1 222100Z 19007KT 10/04 A2982 RMK A01 T00950036  RH  067%=      5-min Rain = 0
KCL1 222101Z 17008KT 10/04 A2982 RMK A01 T00960036  RH  066%=      5-min Rain = 0
KCL1 222102Z 15008KT 10/04 A2982 RMK A01 T00960036  RH  066%=      5-min Rain = 0
KCL1 222103Z 16008KT 10/04 A2982 RMK A01 T00950035  RH  066%=      5-min Rain = 0
KCL1 222104Z 15007KT 09/04 A2982 RMK A01 T00940035  RH  067%=      5-min Rain = 0
KCL1 222105Z 17005KT 09/04 A2982 RMK A01 T00940036  RH  067%=      5-min Rain = 0
KCL1 222106Z 18008KT 09/04 A2982 RMK A01 T00940037  RH  068%=      5-min Rain = 0
KCL1 222107Z 18006KT 10/04 A2982 RMK A01 T00970037  RH  066%=      5-min Rain = 0
KCL1 222108Z 15007KT 10/04 A2982 RMK A01 T00960036  RH  066%=      5-min Rain = 0
KCL1 222109Z 17005KT 10/04 A2982 RMK A01 T00960036  RH  066%=      5-min Rain = 0
KCL1 222110Z 15006KT 10/04 A2982 RMK A01 T00970038  RH  066%=      5-min Rain = 0
KCL1 222111Z 17009KT 10/04 A2982 RMK A01 T01000038  RH  065%=      5-min Rain = 0
KCL1 222112Z 17009KT 10/04 A2982 RMK A01 T01000036  RH  064%=      5-min Rain = 0
KCL1 222113Z 16010KT 10/04 A2982 RMK A01 T00980035  RH  065%=      5-min Rain = 0
KCL1 222114Z 15009KT 10/04 A2982 RMK A01 T00970035  RH  065%=      5-min Rain = 0
KCL1 222115Z 15009KT 10/04 A2982 RMK A01 T00980036  RH  065%=      5-min Rain = 0
KCL1 222116Z 15010KT 10/04 A2982 RMK A01 T00980035  RH  065%=      5-min Rain = 0
KCL1 222117Z 14009KT 10/04 A2982 RMK A01 T01000038  RH  065%=      5-min Rain = 0
KCL1 222118Z 13009KT 10/04 A2982 RMK A01 T01030039  RH  064%=      5-min Rain = 0
KCL1 222119Z 15009KT 10/04 A2982 RMK A01 T01040037  RH  063%=      5-min Rain = 0
KCL1 222120Z 16009KT 10/04 A2982 RMK A01 T01030036  RH  063%=      5-min Rain = 0
KCL1 222121Z 17008KT 10/04 A2982 RMK A01 T01000035  RH  064%=      5-min Rain = 0
KCL1 222122Z 16008G13KT 10/04 A2982 RMK A01 T01000036  RH  065%=      5-min Rain = 0
KCL1 222123Z 15009KT 10/04 A2982 RMK A01 T01020037  RH  064%=      5-min Rain = 0
KCL1 222124Z 15008KT 10/04 A2982 RMK A01 T01040037  RH  063%=      5-min Rain = 0
KCL1 222125Z 15007KT 10/04 A2982 RMK A01 T01030035  RH  063%=      5-min Rain = 0
KCL1 222126Z 15007KT 10/04 A2982 RMK A01 T01000035  RH  064%=      5-min Rain = 0
KCL1 222127Z 17009KT 10/04 A2981 RMK A01 T01010036  RH  064%=      5-min Rain = 0
KCL1 222128Z 16010KT 10/04 A2981 RMK A01 T01020036  RH  064%=      5-min Rain = 0
KCL1 222129Z 17009KT 10/04 A2981 RMK A01 T01020036  RH  064%=      5-min Rain = 0
KCL1 222130Z 14008KT 10/04 A2981 RMK A01 T01020037  RH  064%=      5-min Rain = 0
KCL1 222131Z 13010KT 11/04 A2981 RMK A01 T01050038  RH  063%=      5-min Rain = 0
KCL1 222132Z 17009KT 11/04 A2981 RMK A01 T01050039  RH  063%=      5-min Rain = 0
KCL1 222133Z 13011KT 11/04 A2981 RMK A01 T01080039  RH  062%=      5-min Rain = 0
KCL1 222134Z 14011KT 11/04 A2981 RMK A01 T01060037  RH  062%=      5-min Rain = 0
KCL1 222135Z 12009KT 10/04 A2981 RMK A01 T01030037  RH  063%=      5-min Rain = 0
KCL1 222136Z 13010KT 10/04 A2981 RMK A01 T01030038  RH  064%=      5-min Rain = 0
KCL1 222137Z 13012KT 10/04 A2981 RMK A01 T01030037  RH  064%=      5-min Rain = 0
KCL1 222138Z 13011KT 10/04 A2981 RMK A01 T01020036  RH  064%=      5-min Rain = 0
KCL1 222139Z 13009KT 10/04 A2981 RMK A01 T01000037  RH  065%=      5-min Rain = 0
KCL1 222140Z 15009KT 10/04 A2981 RMK A01 T01000036  RH  065%=      5-min Rain = 0
KCL1 222141Z 12009KT 10/04 A2981 RMK A01 T00990037  RH  065%=      5-min Rain = 0
KCL1 222142Z 11011KT 10/04 A2981 RMK A01 T00990037  RH  065%=      5-min Rain = 0
KCL1 222143Z 12008G13KT 10/04 A2981 RMK A01 T00970035  RH  065%=      5-min Rain = 0
KCL1 222144Z 13013KT 10/04 A2981 RMK A01 T00980038  RH  066%=      5-min Rain = 0
KCL1 222145Z 14012KT 10/04 A2981 RMK A01 T01000038  RH  065%=      5-min Rain = 0
KCL1 222146Z 12011KT 10/04 A2981 RMK A01 T01010038  RH  065%=      5-min Rain = 0
KCL1 222147Z 13011KT 10/04 A2981 RMK A01 T01030039  RH  064%=      5-min Rain = 0
KCL1 222148Z 14012KT 10/04 A2981 RMK A01 T01030037  RH  064%=      5-min Rain = 0
KCL1 222149Z 15010KT 10/04 A2981 RMK A01 T01020038  RH  064%=      5-min Rain = 0
KCL1 222150Z 14008KT 10/04 A2981 RMK A01 T01010037  RH  064%=      5-min Rain = 0
KCL1 222151Z 14009KT 10/04 A2981 RMK A01 T01020038  RH  065%=      5-min Rain = 0
KCL1 222152Z 15013KT 10/04 A2981 RMK A01 T01030037  RH  064%=      5-min Rain = 0
KCL1 222153Z 13010KT 10/04 A2981 RMK A01 T01000035  RH  064%=      5-min Rain = 0
KCL1 222154Z 12009G14KT 10/04 A2981 RMK A01 T00970035  RH  065%=      5-min Rain = 0
KCL1 222155Z 13012KT 10/04 A2981 RMK A01 T00970036  RH  066%=      5-min Rain = 0
KCL1 222156Z 12012KT 10/04 A2981 RMK A01 T00990036  RH  065%=      5-min Rain = 0
KCL1 222157Z 13011KT 10/04 A2981 RMK A01 T01000037  RH  065%=      5-min Rain = 0
KCL1 222158Z 13010KT 10/04 A2981 RMK A01 T00990036  RH  065%=      5-min Rain = 0
KCL1 222159Z 13010KT 10/04 A2981 RMK A01 T00990036  RH  065%=      5-min Rain = 0
KCL1 222200Z 12010KT 10/04 A2981 RMK A01 T00980037  RH  065%=      5-min Rain = 0
KCL1 222201Z 13011KT 10/04 A2981 RMK A01 T00990037  RH  065%=      5-min Rain = 0
KCL1 222202Z 12011KT 10/04 A2981 RMK A01 T01000037  RH  065%=      5-min Rain = 0
KCL1 222203Z 12011KT 10/04 A2981 RMK A01 T00980035  RH  065%=      5-min Rain = 0
KCL1 222204Z 13011KT 10/04 A2981 RMK A01 T00970036  RH  066%=      5-min Rain = 0
KCL1 222205Z 14012KT 10/04 A2981 RMK A01 T00960036  RH  066%=      5-min Rain = 0
KCL1 222206Z 12010KT 10/04 A2981 RMK A01 T00950036  RH  066%=      5-min Rain = 0
KCL1 222207Z 12012KT 09/04 A2981 RMK A01 T00940036  RH  067%=      5-min Rain = 0
KCL1 222208Z 12012KT 09/04 A2981 RMK A01 T00940036  RH  067%=      5-min Rain = 0
KCL1 222209Z 13012KT 09/04 A2981 RMK A01 T00940036  RH  067%=      5-min Rain = 0
KCL1 222210Z 13011KT 09/04 A2981 RMK A01 T00930036  RH  068%=      5-min Rain = 0
KCL1 222211Z 12011KT 09/04 A2981 RMK A01 T00930036  RH  068%=      5-min Rain = 0
KCL1 222212Z 12009KT 09/04 A2981 RMK A01 T00920036  RH  068%=      5-min Rain = 0
KCL1 222213Z 13013KT 09/04 A2981 RMK A01 T00930037  RH  068%=      5-min Rain = 0
KCL1 222214Z 13013KT 09/04 A2981 RMK A01 T00940036  RH  067%=      5-min Rain = 0
KCL1 222215Z 13012KT 09/04 A2981 RMK A01 T00930036  RH  068%=      5-min Rain = 0
KCL1 222216Z 13013KT 09/04 A2981 RMK A01 T00920036  RH  068%=      5-min Rain = 0
KCL1 222217Z 12014KT 09/04 A2981 RMK A01 T00920036  RH  068%=      5-min Rain = 0
KCL1 222218Z 12014KT 09/04 A2981 RMK A01 T00920035  RH  068%=      5-min Rain = 0
KCL1 222219Z 12013KT 09/04 A2981 RMK A01 T00910036  RH  068%=      5-min Rain = 0
KCL1 222220Z 12014KT 09/04 A2981 RMK A01 T00910036  RH  069%=      5-min Rain = 0
KCL1 222221Z 13015KT 09/04 A2981 RMK A01 T00910036  RH  068%=      5-min Rain = 0
KCL1 222222Z 13014KT 09/04 A2981 RMK A01 T00900035  RH  068%=      5-min Rain = 0
KCL1 222223Z 12011KT 09/04 A2981 RMK A01 T00890035  RH  069%=      5-min Rain = 0
KCL1 222224Z 13013KT 09/04 A2981 RMK A01 T00890035  RH  069%=      5-min Rain = 0
KCL1 222225Z 13015KT 09/04 A2981 RMK A01 T00890035  RH  069%=      5-min Rain = 0
KCL1 222226Z 12012KT 09/04 A2981 RMK A01 T00890035  RH  069%=      5-min Rain = 0
KCL1 222227Z 13011KT 09/04 A2981 RMK A01 T00880035  RH  069%=      5-min Rain = 0
KCL1 222228Z 14015KT 09/04 A2981 RMK A01 T00890036  RH  069%=      5-min Rain = 0
KCL1 222229Z 14014KT 09/04 A2981 RMK A01 T00890035  RH  069%=      5-min Rain = 0
KCL1 222230Z 14016KT 09/04 A2981 RMK A01 T00880035  RH  070%=      5-min Rain = 0
KCL1 222231Z 13014KT 09/04 A2981 RMK A01 T00870035  RH  070%=      5-min Rain = 0
KCL1 222232Z 13014KT 09/04 A2981 RMK A01 T00870035  RH  070%=      5-min Rain = 0
KCL1 222233Z 12014KT 09/04 A2981 RMK A01 T00870035  RH  070%=      5-min Rain = 0
KCL1 222234Z 13014KT 09/04 A2981 RMK A01 T00870035  RH  070%=      5-min Rain = 0
KCL1 222235Z 14014KT 09/04 A2981 RMK A01 T00870036  RH  070%=      5-min Rain = 0
KCL1 222236Z 14011KT 09/04 A2981 RMK A01 T00870036  RH  070%=      5-min Rain = 0
KCL1 222237Z 14014KT 09/04 A2981 RMK A01 T00860036  RH  070%=      5-min Rain = 0
KCL1 222238Z 12014KT 09/04 A2981 RMK A01 T00860036  RH  071%=      5-min Rain = 0
KCL1 222239Z 12016KT 09/04 A2981 RMK A01 T00870036  RH  071%=      5-min Rain = 0
KCL1 222240Z 13015KT 09/04 A2981 RMK A01 T00850036  RH  071%=      5-min Rain = 0
KCL1 222241Z 13015KT 08/04 A2981 RMK A01 T00840035  RH  072%=      5-min Rain = 0
KCL1 222242Z 12014KT 08/04 A2981 RMK A01 T00820035  RH  072%=      5-min Rain = 0
KCL1 222243Z 13013KT 08/04 A2981 RMK A01 T00820036  RH  073%=      5-min Rain = 0
KCL1 222244Z 12011KT 08/04 A2981 RMK A01 T00820036  RH  073%=      5-min Rain = 0
KCL1 222245Z 12014KT 08/04 A2981 RMK A01 T00820036  RH  072%=      5-min Rain = 0
KCL1 222246Z 12014KT 08/04 A2981 RMK A01 T00830036  RH  072%=      5-min Rain = 0
KCL1 222247Z 12015KT 08/04 A2981 RMK A01 T00820036  RH  072%=      5-min Rain = 0
KCL1 222248Z 12016KT 08/04 A2981 RMK A01 T00800035  RH  073%=      5-min Rain = 0
KCL1 222249Z 12015KT 08/04 A2981 RMK A01 T00790035  RH  074%=      5-min Rain = 0
KCL1 222250Z 12015KT 08/04 A2981 RMK A01 T00780035  RH  074%=      5-min Rain = 0
KCL1 222251Z 13014KT 08/04 A2981 RMK A01 T00770036  RH  075%=      5-min Rain = 0
KCL1 222252Z 13013KT 08/04 A2981 RMK A01 T00780036  RH  075%=      5-min Rain = 0
KCL1 222253Z 13013KT 08/04 A2981 RMK A01 T00790036  RH  074%=      5-min Rain = 0
KCL1 222254Z 13013KT 08/04 A2981 RMK A01 T00790036  RH  074%=      5-min Rain = 0
KCL1 222255Z 13014KT 08/04 A2981 RMK A01 T00780035  RH  074%=      5-min Rain = 0
KCL1 222256Z 12013KT 08/03 A2981 RMK A01 T00760034  RH  075%=      5-min Rain = 0
KCL1 222257Z 13013KT 08/04 A2981 RMK A01 T00760035  RH  075%=      5-min Rain = 0
KCL1 222258Z 14012KT 08/04 A2981 RMK A01 T00750035  RH  076%=      5-min Rain = 0
KCL1 222259Z 14015KT 08/04 A2981 RMK A01 T00750036  RH  076%=      5-min Rain = 0
KCL1 222300Z 13014KT 07/04 A2981 RMK A01 T00730035  RH  077%=      5-min Rain = 0
KCL1 222301Z 13014KT 07/03 A2981 RMK A01 T00700034  RH  078%=      5-min Rain = 0
KCL1 222302Z 14014KT 07/04 A2981 RMK A01 T00690035  RH  079%=      5-min Rain = 0
KCL1 222303Z 13014KT 07/04 A2981 RMK A01 T00680035  RH  080%=      5-min Rain = 0
KCL1 222304Z 13014KT 07/04 A2981 RMK A01 T00670035  RH  080%=      5-min Rain = 0
KCL1 222305Z 13015KT 07/04 A2981 RMK A01 T00670036  RH  080%=      5-min Rain = 0
KCL1 222306Z 13014KT 07/04 A2981 RMK A01 T00660035  RH  081%=      5-min Rain = 0
KCL1 222307Z 13014KT 07/04 A2981 RMK A01 T00650035  RH  081%=      5-min Rain = 0
KCL1 222308Z 13013KT 06/03 A2981 RMK A01 T00630034  RH  082%=      5-min Rain = 0
KCL1 222309Z 13012KT 06/03 A2981 RMK A01 T00610034  RH  083%=      5-min Rain = 0
KCL1 222310Z 13011KT 06/03 A2981 RMK A01 T00600033  RH  083%=      5-min Rain = 0
KCL1 222311Z 13014KT 06/03 A2981 RMK A01 T00590034  RH  084%=      5-min Rain = 0
KCL1 222312Z 13012KT 06/03 A2981 RMK A01 T00580034  RH  085%=      5-min Rain = 0
KCL1 222313Z 13009KT 06/03 A2981 RMK A01 T00570034  RH  085%=      5-min Rain = 0
KCL1 222314Z 12012KT 06/04 A2981 RMK A01 T00570035  RH  086%=      5-min Rain = 0
KCL1 222315Z 13013KT 06/04 A2981 RMK A01 T00570035  RH  086%=      5-min Rain = 0
KCL1 222316Z 13012KT 06/04 A2981 RMK A01 T00580036  RH  086%=      5-min Rain = 0
KCL1 222317Z 13013KT 06/04 A2981 RMK A01 T00580037  RH  086%=      5-min Rain = 0
KCL1 222318Z 14012KT 06/04 A2981 RMK A01 T00590037  RH  086%=      5-min Rain = 0
KCL1 222319Z 13012KT 06/04 A2981 RMK A01 T00580037  RH  086%=      5-min Rain = 0
KCL1 222320Z 13012KT 06/04 A2981 RMK A01 T00580037  RH  086%=      5-min Rain = 0
KCL1 222321Z 13014KT 06/04 A2981 RMK A01 T00570037  RH  087%=      5-min Rain = 0
KCL1 222322Z 13013KT 06/04 A2981 RMK A01 T00570036  RH  087%=      5-min Rain = 0
KCL1 222323Z 14011KT 06/04 A2981 RMK A01 T00550036  RH  087%=      5-min Rain = 0
KCL1 222324Z 15014KT 06/04 A2981 RMK A01 T00550036  RH  088%=      5-min Rain = 0
KCL1 222325Z 13013KT 05/04 A2981 RMK A01 T00540036  RH  089%=      5-min Rain = 0
KCL1 222326Z 13011KT 05/04 A2981 RMK A01 T00530037  RH  089%=      5-min Rain = 0
KCL1 222327Z 13013KT 05/04 A2981 RMK A01 T00520037  RH  090%=      5-min Rain = 0
KCL1 222328Z 13012KT 05/04 A2981 RMK A01 T00520037  RH  090%=      5-min Rain = 0
KCL1 222329Z 13011KT 05/04 A2981 RMK A01 T00520037  RH  090%=      5-min Rain = 0
KCL1 222330Z 13013KT 05/04 A2981 RMK A01 T00530037  RH  090%=      5-min Rain = 0
KCL1 222331Z 13011KT 05/04 A2981 RMK A01 T00530037  RH  090%=      5-min Rain = 0
KCL1 222332Z 13011KT 05/04 A2981 RMK A01 T00530037  RH  090%=      5-min Rain = 0
KCL1 222333Z 13013KT 05/04 A2981 RMK A01 T00520037  RH  090%=      5-min Rain = 0
KCL1 222334Z 13013KT 05/04 A2981 RMK A01 T00520038  RH  090%=      5-min Rain = 0
KCL1 222335Z 13012KT 05/04 A2981 RMK A01 T00520038  RH  090%=      5-min Rain = 0
KCL1 222336Z 13011KT 05/04 A2981 RMK A01 T00520037  RH  090%=      5-min Rain = 0
KCL1 222337Z 14010KT 05/04 A2981 RMK A01 T00520037  RH  090%=      5-min Rain = 0
KCL1 222338Z 14009KT 05/04 A2981 RMK A01 T00520037  RH  090%=      5-min Rain = 0
KCL1 222339Z 14008KT 05/04 A2981 RMK A01 T00520037  RH  090%=      5-min Rain = 0
KCL1 222340Z 14009KT 05/04 A2981 RMK A01 T00530037  RH  090%=      5-min Rain = 0
KCL1 222341Z 15011KT 05/04 A2981 RMK A01 T00530036  RH  089%=      5-min Rain = 0
KCL1 222342Z 14013KT 05/04 A2981 RMK A01 T00530036  RH  089%=      5-min Rain = 0
KCL1 222343Z 15010KT 05/04 A2981 RMK A01 T00520036  RH  089%=      5-min Rain = 0
KCL1 222344Z 14012KT 05/04 A2981 RMK A01 T00520036  RH  090%=      5-min Rain = 0
KCL1 222345Z 14012KT 05/04 A2981 RMK A01 T00510035  RH  089%=      5-min Rain = 0
KCL1 222346Z 15010KT 05/04 A2981 RMK A01 T00510035  RH  089%=      5-min Rain = 0
KCL1 222347Z 15011KT 05/04 A2981 RMK A01 T00510036  RH  090%=      5-min Rain = 0
KCL1 222348Z 14013KT 05/04 A2981 RMK A01 T00510036  RH  090%=      5-min Rain = 0
KCL1 222349Z 14012KT 05/04 A2981 RMK A01 T00510035  RH  090%=      5-min Rain = 0
KCL1 222350Z 14011KT 05/04 A2981 RMK A01 T00510036  RH  090%=      5-min Rain = 0
KCL1 222351Z 13014KT 05/04 A2981 RMK A01 T00500035  RH  090%=      5-min Rain = 0
KCL1 222352Z 13014KT 05/04 A2981 RMK A01 T00500035  RH  090%=      5-min Rain = 0
KCL1 222353Z 13013KT 05/04 A2981 RMK A01 T00500035  RH  090%=      5-min Rain = 0
KCL1 222354Z 12011KT 05/04 A2981 RMK A01 T00490035  RH  090%=      5-min Rain = 0
KCL1 222355Z 13012KT 05/04 A2981 RMK A01 T00490035  RH  090%=      5-min Rain = 0
KCL1 222356Z 13013KT 05/03 A2981 RMK A01 T00490034  RH  090%=      5-min Rain = 0
KCL1 222357Z 13012KT 05/03 A2981 RMK A01 T00490034  RH  090%=      5-min Rain = 0
KCL1 222358Z 12014KT 05/03 A2981 RMK A01 T00490034  RH  090%=      5-min Rain = 0
KCL1 222359Z 12013KT 05/04 A2981 RMK A01 T00490035  RH  091%=      5-min Rain = 0
KCL1 230000Z 13012KT 05/04 A2981 RMK A01 T00490035  RH  091%=      5-min Rain = 0
KCL1 230001Z 13009KT 05/04 A2981 RMK A01 T00490035  RH  091%=      5-min Rain = 0
KCL1 230002Z 13011KT 05/04 A2981 RMK A01 T00480035  RH  091%=      5-min Rain = 0
KCL1 230003Z 12014KT 05/03 A2981 RMK A01 T00480034  RH  091%=      5-min Rain = 0
KCL1 230004Z 13012KT 05/03 A2981 RMK A01 T00480034  RH  090%=      5-min Rain = 0
KCL1 230005Z 12011KT 05/03 A2981 RMK A01 T00480034  RH  091%=      5-min Rain = 0
KCL1 230006Z 12012KT 05/03 A2981 RMK A01 T00480034  RH  090%=      5-min Rain = 0
KCL1 230007Z 12011KT 05/03 A2981 RMK A01 T00470033  RH  090%=      5-min Rain = 0
KCL1 230008Z 13011G17KT 05/03 A2981 RMK A01 T00470033  RH  091%=      5-min Rain = 0
KCL1 230009Z 13014KT 05/03 A2981 RMK A01 T00470033  RH  091%=      5-min Rain = 0
KCL1 230010Z 13013KT 05/03 A2981 RMK A01 T00470033  RH  090%=      5-min Rain = 0
KCL1 230011Z 12013KT 05/03 A2981 RMK A01 T00470033  RH  090%=      5-min Rain = 0
KCL1 230012Z 12014KT 05/03 A2981 RMK A01 T00470033  RH  090%=      5-min Rain = 0
KCL1 230013Z 12015KT 05/03 A298 RMK A01 T00470033  RH  090%=      5-min Rain = 0
KCL1 230014Z 12014KT 05/03 A298 RMK A01 T00470033  RH  090%=      5-min Rain = 0
KCL1 230015Z 13012KT 05/03 A298 RMK A01 T00470032  RH  090%=      5-min Rain = 0
KCL1 230016Z 13010KT 05/03 A298 RMK A01 T00470032  RH  090%=      5-min Rain = 0
KCL1 230017Z 13012KT 05/03 A298 RMK A01 T00470032  RH  090%=      5-min Rain = 0
KCL1 230018Z 13012KT 05/03 A2981 RMK A01 T00470032  RH  090%=      5-min Rain = 0
KCL1 230019Z 13011KT 05/03 A2981 RMK A01 T00470032  RH  090%=      5-min Rain = 0
KCL1 230020Z 14009KT 05/03 A2981 RMK A01 T00470032  RH  090%=      5-min Rain = 0
KCL1 230021Z 14008KT 05/03 A2981 RMK A01 T00470032  RH  090%=      5-min Rain = 0
KCL1 230022Z 13010KT 05/03 A2981 RMK A01 T00470031  RH  090%=      5-min Rain = 0
KCL1 230023Z 13010KT 05/03 A2981 RMK A01 T00470031  RH  089%=      5-min Rain = 0
KCL1 230024Z 14011KT 05/03 A2981 RMK A01 T00470031  RH  090%=      5-min Rain = 0
KCL1 230025Z 13009KT 05/03 A2981 RMK A01 T00470031  RH  089%=      5-min Rain = 0
KCL1 230026Z 13011G16KT 05/03 A2981 RMK A01 T00470031  RH  089%=      5-min Rain = 0
KCL1 230027Z 14011KT 05/03 A2981 RMK A01 T00470030  RH  089%=      5-min Rain = 0
KCL1 230028Z 14012KT 05/03 A2981 RMK A01 T00470030  RH  089%=      5-min Rain = 0
KCL1 230029Z 15014KT 05/03 A2981 RMK A01 T00470030  RH  089%=      5-min Rain = 0
KCL1 230030Z 14013KT 05/03 A2981 RMK A01 T00470030  RH  089%=      5-min Rain = 0
KCL1 230031Z 14013KT 05/03 A2981 RMK A01 T00470030  RH  089%=      5-min Rain = 0
KCL1 230032Z 13015KT 05/03 A2981 RMK A01 T00460030  RH  089%=      5-min Rain = 0
KCL1 230033Z 14014KT 05/03 A2981 RMK A01 T00460030  RH  090%=      5-min Rain = 0
KCL1 230034Z 14014KT 05/03 A2981 RMK A01 T00460031  RH  090%=      5-min Rain = 0
KCL1 230035Z 14014KT 05/03 A2982 RMK A01 T00460032  RH  090%=      5-min Rain = 0
KCL1 230036Z 14013KT 05/03 A2982 RMK A01 T00460032  RH  091%=      5-min Rain = 0
KCL1 230037Z 14012KT 05/03 A2982 RMK A01 T00460032  RH  091%=      5-min Rain = 0
KCL1 230038Z 14011KT 05/03 A2982 RMK A01 T00460031  RH  090%=      5-min Rain = 0
KCL1 230039Z 14011KT 05/03 A2982 RMK A01 T00460031  RH  090%=      5-min Rain = 0
KCL1 230040Z 14013KT 05/03 A2982 RMK A01 T00460032  RH  091%=      5-min Rain = 0
KCL1 230041Z 13010KT 05/03 A2982 RMK A01 T00460032  RH  091%=      5-min Rain = 0
KCL1 230042Z 14010KT 05/03 A2982 RMK A01 T00460033  RH  091%=      5-min Rain = 0
KCL1 230043Z 14013KT 05/03 A2982 RMK A01 T00460033  RH  091%=      5-min Rain = 0
KCL1 230044Z 15014KT 05/03 A2982 RMK A01 T00460032  RH  091%=      5-min Rain = 0
KCL1 230045Z 14011KT 05/03 A2982 RMK A01 T00460031  RH  090%=      5-min Rain = 0
KCL1 230046Z 14011KT 05/03 A2982 RMK A01 T00460030  RH  090%=      5-min Rain = 0
KCL1 230047Z 14012KT 05/03 A2982 RMK A01 T00460030  RH  090%=      5-min Rain = 0
KCL1 230048Z 14009KT 05/03 A2982 RMK A01 T00460031  RH  090%=      5-min Rain = 0
KCL1 230049Z 14009KT 05/03 A2982 RMK A01 T00460031  RH  090%=      5-min Rain = 0
KCL1 230050Z 13010KT 05/03 A2982 RMK A01 T00460032  RH  091%=      5-min Rain = 0
KCL1 230051Z 14012KT 05/03 A2982 RMK A01 T00460032  RH  091%=      5-min Rain = 0
KCL1 230052Z 14012KT 05/03 A2982 RMK A01 T00460033  RH  091%=      5-min Rain = 0
KCL1 230053Z 14012KT 05/03 A2982 RMK A01 T00460033  RH  092%=      5-min Rain = 0
KCL1 230054Z 14011KT 05/03 A2982 RMK A01 T00460033  RH  092%=      5-min Rain = 0
KCL1 230055Z 13014KT 05/03 A2982 RMK A01 T00460033  RH  092%=      5-min Rain = 0
KCL1 230056Z 14014KT 05/03 A2982 RMK A01 T00460034  RH  092%=      5-min Rain = 0
KCL1 230057Z 15011KT 05/03 A2982 RMK A01 T00450034  RH  092%=      5-min Rain = 0
KCL1 230058Z 13011KT 05/03 A2982 RMK A01 T00450034  RH  092%=      5-min Rain = 0
KCL1 230059Z 13009KT 05/03 A2982 RMK A01 T00450034  RH  093%=      5-min Rain = 0
KCL1 230100Z 13010KT 05/03 A2982 RMK A01 T00450034  RH  093%=      5-min Rain = 0
KCL1 230101Z 13012KT 05/03 A2982 RMK A01 T00450034  RH  093%=      5-min Rain = 0
KCL1 230102Z 13012KT 05/04 A2982 RMK A01 T00450035  RH  093%=      5-min Rain = 0
KCL1 230103Z 12012KT 05/04 A2982 RMK A01 T00450035  RH  093%=      5-min Rain = 0
KCL1 230104Z 12013KT 05/04 A2981 RMK A01 T00450035  RH  093%=      5-min Rain = 0
KCL1 230105Z 12013KT 05/04 A2982 RMK A01 T00450036  RH  094%=      5-min Rain = 0
KCL1 230106Z 13013KT 05/04 A2982 RMK A01 T00450036  RH  094%=      5-min Rain = 0
KCL1 230107Z 13013KT 05/04 A2982 RMK A01 T00450037  RH  095%=      5-min Rain = 0
KCL1 230108Z 13013KT 04/04 A2982 RMK A01 T00440036  RH  095%=      5-min Rain = 0
KCL1 230109Z 13012KT 04/04 A2982 RMK A01 T00440037  RH  095%=      5-min Rain = 0
KCL1 230110Z 13014KT 05/04 A2981 RMK A01 T00450037  RH  095%=      5-min Rain = 0
KCL1 230111Z 13012KT 04/04 A2981 RMK A01 T00440036  RH  095%=      5-min Rain = 0
KCL1 230112Z 12011KT 04/04 A2982 RMK A01 T00440036  RH  094%=      5-min Rain = 0
KCL1 230113Z 13011KT 04/04 A2982 RMK A01 T00440036  RH  094%=      5-min Rain = 0
KCL1 230114Z 13012KT 04/04 A2982 RMK A01 T00440036  RH  094%=      5-min Rain = 0
KCL1 230115Z 13012KT 04/04 A2982 RMK A01 T00440036  RH  094%=      5-min Rain = 0
KCL1 230116Z 13012KT 04/04 A2982 RMK A01 T00440037  RH  095%=      5-min Rain = 0
KCL1 230117Z 12012KT 04/04 A2982 RMK A01 T00440037  RH  095%=      5-min Rain = 0
KCL1 230118Z 12014KT 04/04 A2982 RMK A01 T00440038  RH  096%=      5-min Rain = 0
KCL1 230119Z 13014KT 04/04 A2982 RMK A01 T00440039  RH  097%=      5-min Rain = 0
KCL1 230120Z 12013KT 04/04 A2982 RMK A01 T00430040  RH  098%=      5-min Rain = 0
KCL1 230121Z 12013KT 04/04 A2982 RMK A01 T00430040  RH  098%=      5-min Rain = 0
KCL1 230122Z 12013KT 04/04 A2982 RMK A01 T00430040  RH  098%=      5-min Rain = 0
KCL1 230123Z 12013KT 04/04 A2982 RMK A01 T00430040  RH  099%=      5-min Rain = 0
KCL1 230124Z 13012KT 04/04 A2982 RMK A01 T00420040  RH  099%=      5-min Rain = 0
KCL1 230125Z 13014KT 04/04 A2982 RMK A01 T00430040  RH  098%=      5-min Rain = 0
KCL1 230126Z 13011KT 04/04 A2982 RMK A01 T00420039  RH  098%=      5-min Rain = 0
KCL1 230127Z 13011KT 04/04 A2982 RMK A01 T00420038  RH  097%=      5-min Rain = 0
KCL1 230128Z 13013KT 04/04 A2982 RMK A01 T00420037  RH  097%=      5-min Rain = 0
KCL1 230129Z 13012KT 04/04 A2982 RMK A01 T00430037  RH  096%=      5-min Rain = 0
KCL1 230130Z 13010KT 04/04 A2982 RMK A01 T00420037  RH  096%=      5-min Rain = 0
KCL1 230131Z 13012KT 04/04 A2982 RMK A01 T00430037  RH  096%=      5-min Rain = 0
KCL1 230132Z 13013KT 04/04 A2982 RMK A01 T00430037  RH  096%=      5-min Rain = 0
KCL1 230133Z 14013KT 04/04 A2982 RMK A01 T00430036  RH  096%=      5-min Rain = 0
KCL1 230134Z 13011KT 04/04 A2982 RMK A01 T00430036  RH  096%=      5-min Rain = 0
KCL1 230135Z 13011KT 04/04 A2982 RMK A01 T00430036  RH  095%=      5-min Rain = 0
KCL1 230136Z 13009KT 04/04 A2982 RMK A01 T00430035  RH  095%=      5-min Rain = 0
KCL1 230137Z 12011KT 04/04 A2982 RMK A01 T00430035  RH  095%=      5-min Rain = 0
KCL1 230138Z 12011KT 04/04 A2982 RMK A01 T00430035  RH  095%=      5-min Rain = 0
KCL1 230139Z 12010KT 04/04 A2982 RMK A01 T00430036  RH  095%=      5-min Rain = 0
KCL1 230140Z 12010KT 04/04 A2982 RMK A01 T00430037  RH  096%=      5-min Rain = 0
KCL1 230141Z 12010KT 04/04 A2982 RMK A01 T00420036  RH  096%=      5-min Rain = 0
KCL1 230142Z 12013KT 04/04 A2982 RMK A01 T00420036  RH  096%=      5-min Rain = 0
KCL1 230143Z 12014KT 04/04 A2982 RMK A01 T00420036  RH  096%=      5-min Rain = 0
KCL1 230144Z 12014KT 04/04 A2981 RMK A01 T00420036  RH  095%=      5-min Rain = 0
KCL1 230145Z 12012KT 04/04 A2981 RMK A01 T00420035  RH  095%=      5-min Rain = 0
KCL1 230146Z 12010KT 04/04 A2981 RMK A01 T00420035  RH  095%=      5-min Rain = 0
KCL1 230147Z 12012KT 04/04 A2981 RMK A01 T00420035  RH  095%=      5-min Rain = 0
KCL1 230148Z 12011KT 04/04 A2981 RMK A01 T00420035  RH  095%=      5-min Rain = 0
KCL1 230149Z 13013KT 04/04 A2981 RMK A01 T00420035  RH  095%=      5-min Rain = 0
KCL1 230150Z 13013KT 04/04 A2981 RMK A01 T00430036  RH  095%=      5-min Rain = 0
KCL1 230151Z 13012KT 04/04 A2981 RMK A01 T00430037  RH  096%=      5-min Rain = 0
KCL1 230152Z 12012KT 04/04 A2981 RMK A01 T00420036  RH  096%=      5-min Rain = 0
KCL1 230153Z 12010KT 04/04 A2981 RMK A01 T00420036  RH  096%=      5-min Rain = 0
KCL1 230154Z 12012KT 04/04 A2981 RMK A01 T00420036  RH  096%=      5-min Rain = 0
KCL1 230155Z 12011KT 04/04 A298 RMK A01 T00420036  RH  096%=      5-min Rain = 0
KCL1 230156Z 12012KT 04/04 A298 RMK A01 T00420036  RH  096%=      5-min Rain = 0
KCL1 230157Z 12011KT 04/04 A298 RMK A01 T00420036  RH  096%=      5-min Rain = 0
KCL1 230158Z 12011KT 04/04 A298 RMK A01 T00420036  RH  096%=      5-min Rain = 0
KCL1 230159Z 12014KT 04/04 A298 RMK A01 T00420036  RH  096%=      5-min Rain = 0
KCL1 230200Z 12013KT 04/04 A298 RMK A01 T00420037  RH  096%=      5-min Rain = 0
KCL1 230201Z 12013KT 04/04 A298 RMK A01 T00420037  RH  097%=      5-min Rain = 0
KCL1 230202Z 12015KT 04/04 A298 RMK A01 T00420037  RH  097%=      5-min Rain = 0
KCL1 230203Z 13012KT 04/04 A298 RMK A01 T00410038  RH  097%=      5-min Rain = 0
KCL1 230204Z 12013KT 04/04 A298 RMK A01 T00410038  RH  098%=      5-min Rain = 0
KCL1 230205Z 12014KT 04/04 A298 RMK A01 T00410038  RH  098%=      5-min Rain = 0
KCL1 230206Z 12013KT 04/04 A298 RMK A01 T00410037  RH  097%=      5-min Rain = 0
KCL1 230207Z 12014KT 04/04 A298 RMK A01 T00410037  RH  097%=      5-min Rain = 0
KCL1 230208Z 12013KT 04/04 A298 RMK A01 T00410036  RH  097%=      5-min Rain = 0
KCL1 230209Z 13013KT 04/04 A298 RMK A01 T00410035  RH  096%=      5-min Rain = 0
KCL1 230210Z 12015KT 04/04 A2979 RMK A01 T00410035  RH  096%=      5-min Rain = 0
KCL1 230211Z 12011KT 04/04 A2979 RMK A01 T00410035  RH  096%=      5-min Rain = 0
KCL1 230212Z 12009G14KT 04/03 A2979 RMK A01 T00410034  RH  095%=      5-min Rain = 0
KCL1 230213Z 12011KT 04/04 A2979 RMK A01 T00420035  RH  095%=      5-min Rain = 0
KCL1 230214Z 12012KT 04/03 A2979 RMK A01 T00410034  RH  095%=      5-min Rain = 0
KCL1 230215Z 12013KT 04/03 A2979 RMK A01 T00420034  RH  095%=      5-min Rain = 0
KCL1 230216Z 12013KT 04/03 A298 RMK A01 T00410033  RH  094%=      5-min Rain = 0
KCL1 230217Z 12012KT 04/03 A298 RMK A01 T00410033  RH  094%=      5-min Rain = 0
KCL1 230218Z 12012KT 04/03 A298 RMK A01 T00420033  RH  094%=      5-min Rain = 0
KCL1 230219Z 12012KT 04/03 A298 RMK A01 T00420033  RH  094%=      5-min Rain = 0
KCL1 230220Z 12011KT 04/03 A298 RMK A01 T00410033  RH  094%=      5-min Rain = 0
KCL1 230221Z 12012KT 04/03 A2979 RMK A01 T00410032  RH  094%=      5-min Rain = 0
KCL1 230222Z 13011KT 04/03 A2979 RMK A01 T00410032  RH  094%=      5-min Rain = 0
KCL1 230223Z 12013KT 04/03 A2979 RMK A01 T00410032  RH  094%=      5-min Rain = 0
KCL1 230224Z 12012KT 04/03 A2979 RMK A01 T00410032  RH  094%=      5-min Rain = 0
KCL1 230225Z 11012KT 04/03 A2979 RMK A01 T00410032  RH  094%=      5-min Rain = 0
KCL1 230226Z 12011KT 04/03 A2979 RMK A01 T00410032  RH  094%=      5-min Rain = 0
KCL1 230227Z 12011KT 04/03 A2979 RMK A01 T00410033  RH  095%=      5-min Rain = 0
KCL1 230228Z 12012KT 04/03 A2979 RMK A01 T00410033  RH  095%=      5-min Rain = 0
KCL1 230229Z 12014KT 04/03 A2979 RMK A01 T00400033  RH  095%=      5-min Rain = 0
KCL1 230230Z 12015KT 04/03 A2979 RMK A01 T00400033  RH  095%=      5-min Rain = 0
KCL1 230231Z 12014KT 04/03 A2979 RMK A01 T00400033  RH  095%=      5-min Rain = 0
KCL1 230232Z 12013KT 04/03 A2979 RMK A01 T00400033  RH  095%=      5-min Rain = 0
KCL1 230233Z 13010KT 04/03 A2979 RMK A01 T00400033  RH  095%=      5-min Rain = 0
KCL1 230234Z 12010KT 04/03 A2978 RMK A01 T00400033  RH  095%=      5-min Rain = 0
KCL1 230235Z 12013KT 04/03 A2978 RMK A01 T00400033  RH  095%=      5-min Rain = 0
KCL1 230236Z 12013KT 04/03 A2978 RMK A01 T00400033  RH  095%=      5-min Rain = 0
KCL1 230237Z 12013KT 04/03 A2978 RMK A01 T00400032  RH  095%=      5-min Rain = 0
KCL1 230238Z 13012KT 04/03 A2978 RMK A01 T00400032  RH  095%=      5-min Rain = 0
KCL1 230239Z 12012KT 04/03 A2978 RMK A01 T00400033  RH  095%=      5-min Rain = 0
KCL1 230240Z 12013KT 04/03 A2978 RMK A01 T00400032  RH  095%=      5-min Rain = 0
KCL1 230241Z 12012KT 04/03 A2978 RMK A01 T00400032  RH  095%=      5-min Rain = 0
KCL1 230242Z 12015KT 04/03 A2978 RMK A01 T00400033  RH  095%=      5-min Rain = 0
KCL1 230243Z 12012KT 04/03 A2978 RMK A01 T00400033  RH  096%=      5-min Rain = 0
KCL1 230244Z 12012KT 04/03 A2978 RMK A01 T00400034  RH  096%=      5-min Rain = 0
KCL1 230245Z 13013KT 04/03 A2978 RMK A01 T00400034  RH  096%=      5-min Rain = 0
KCL1 230246Z 13011KT 04/03 A2978 RMK A01 T00400033  RH  096%=      5-min Rain = 0
KCL1 230247Z 12012KT 04/03 A2978 RMK A01 T00390033  RH  096%=      5-min Rain = 0
KCL1 230248Z 12014G19KT 04/03 A2978 RMK A01 T00390033  RH  096%=      5-min Rain = 0
KCL1 230249Z 13014KT 04/03 A2978 RMK A01 T00390033  RH  096%=      5-min Rain = 0
KCL1 230250Z 12015KT 04/03 A2978 RMK A01 T00390033  RH  096%=      5-min Rain = 0
KCL1 230251Z 13013KT 04/03 A2978 RMK A01 T00390034  RH  096%=      5-min Rain = 0
KCL1 230252Z 12013KT 04/03 A2978 RMK A01 T00390034  RH  096%=      5-min Rain = 0
KCL1 230253Z 12013KT 04/03 A2978 RMK A01 T00390034  RH  096%=      5-min Rain = 0
KCL1 230254Z 12012KT 04/03 A2978 RMK A01 T00390034  RH  096%=      5-min Rain = 0
KCL1 230255Z 12013KT 04/03 A2978 RMK A01 T00390034  RH  097%=      5-min Rain = 0
KCL1 230256Z 12014KT 04/03 A2978 RMK A01 T00390034  RH  097%=      5-min Rain = 0
KCL1 230257Z 12015KT 04/03 A2978 RMK A01 T00390034  RH  097%=      5-min Rain = 0
KCL1 230258Z 12014KT 04/03 A2978 RMK A01 T00390034  RH  097%=      5-min Rain = 0
KCL1 230259Z 13014KT 04/03 A2978 RMK A01 T00380034  RH  097%=      5-min Rain = 0
KCL1 230300Z 12013KT 04/03 A2978 RMK A01 T00380034  RH  097%=      5-min Rain = 0
KCL1 230301Z 12012KT 04/03 A2978 RMK A01 T00380034  RH  097%=      5-min Rain = 0
KCL1 230302Z 12012KT 04/03 A2978 RMK A01 T00380034  RH  097%=      5-min Rain = 0
KCL1 230303Z 12012G17KT 04/03 A2978 RMK A01 T00380034  RH  097%=      5-min Rain = 0
KCL1 230304Z 12015KT 04/03 A2978 RMK A01 T00390034  RH  097%=      5-min Rain = 0
KCL1 230305Z 11014KT 04/03 A2978 RMK A01 T00380034  RH  097%=      5-min Rain = 0
KCL1 230306Z 11014KT 04/03 A2978 RMK A01 T00380034  RH  097%=      5-min Rain = 0
KCL1 230307Z 12012KT 04/04 A2978 RMK A01 T00380035  RH  097%=      5-min Rain = 0
KCL1 230308Z 11013KT 04/04 A2978 RMK A01 T00380035  RH  097%=      5-min Rain = 0
KCL1 230309Z 12015KT 04/04 A2978 RMK A01 T00380035  RH  097%=      5-min Rain = 0
KCL1 230310Z 12014KT 04/03 A2978 RMK A01 T00380034  RH  097%=      5-min Rain = 0
KCL1 230311Z 12015KT 04/04 A2978 RMK A01 T00380035  RH  097%=      5-min Rain = 0
KCL1 230312Z 12013KT 04/04 A2978 RMK A01 T00380035  RH  098%=      5-min Rain = 0
KCL1 230313Z 12012G17KT 04/04 A2978 RMK A01 T00380035  RH  098%=      5-min Rain = 0
KCL1 230314Z 12013KT 04/04 A2978 RMK A01 T00380035  RH  098%=      5-min Rain = 0
KCL1 230315Z 13011KT 04/04 A2978 RMK A01 T00380035  RH  098%=      5-min Rain = 0
KCL1 230316Z 12011KT 04/04 A2978 RMK A01 T00380035  RH  098%=      5-min Rain = 0
KCL1 230317Z 12011KT 04/04 A2978 RMK A01 T00380035  RH  098%=      5-min Rain = 0
KCL1 230318Z 12013KT 04/04 A2978 RMK A01 T00380035  RH  098%=      5-min Rain = 0
KCL1 230319Z 13012G17KT 04/04 A2978 RMK A01 T00380035  RH  098%=      5-min Rain = 0
KCL1 230320Z 12012KT 04/04 A2978 RMK A01 T00380035  RH  098%=      5-min Rain = 0
KCL1 230321Z 12012KT 04/04 A2978 RMK A01 T00380036  RH  099%=      5-min Rain = 0
KCL1 230322Z 12012KT 04/04 A2978 RMK A01 T00380036  RH  099%=      5-min Rain = 0
KCL1 230323Z 12010KT 04/04 A2978 RMK A01 T00380036  RH  099%=      5-min Rain = 0
KCL1 230324Z 13011KT 04/04 A2978 RMK A01 T00380036  RH  099%=      5-min Rain = 0
KCL1 230325Z 12012KT 04/04 A2978 RMK A01 T00380036  RH  099%=      5-min Rain = 0
KCL1 230326Z 12012KT 04/04 A2978 RMK A01 T00380036  RH  099%=      5-min Rain = 0
KCL1 230327Z 12013KT 04/04 A2978 RMK A01 T00380036  RH  099%=      5-min Rain = 0
KCL1 230328Z 12012KT 04/04 A2978 RMK A01 T00380036  RH  099%=      5-min Rain = 0
KCL1 230329Z 12014KT 04/04 A2978 RMK A01 T00380036  RH  099%=      5-min Rain = 0
KCL1 230330Z 12015KT 04/04 A2978 RMK A01 T00380036  RH  099%=      5-min Rain = 0
KCL1 230331Z 12014KT 04/04 A2978 RMK A01 T00380036  RH  099%=      5-min Rain = 0
KCL1 230332Z 12013KT 04/04 A2978 RMK A01 T00380036  RH  099%=      5-min Rain = 0
KCL1 230333Z 12014G20KT 04/04 A2978 RMK A01 T00380036  RH  099%=      5-min Rain = 0
KCL1 230334Z 12015KT 04/04 A2978 RMK A01 T00380036  RH  099%=      5-min Rain = 0
KCL1 230335Z 12014KT 04/04 A2978 RMK A01 T00380036  RH  098%=      5-min Rain = 0
KCL1 230336Z 11014KT 04/04 A2978 RMK A01 T00380035  RH  098%=      5-min Rain = 0
KCL1 230337Z 11012G17KT 04/03 A2978 RMK A01 T00380034  RH  098%=      5-min Rain = 0
KCL1 230338Z 11016KT 04/03 A2978 RMK A01 T00380034  RH  097%=      5-min Rain = 0
KCL1 230339Z 11015KT 04/03 A2978 RMK A01 T00380034  RH  098%=      5-min Rain = 0
KCL1 230340Z 11013KT 04/04 A2978 RMK A01 T00380035  RH  098%=      5-min Rain = 0
KCL1 230341Z 11010KT 04/04 A2978 RMK A01 T00380035  RH  098%=      5-min Rain = 0
KCL1 230342Z 11011KT 04/04 A2978 RMK A01 T00380035  RH  098%=      5-min Rain = 0
KCL1 230343Z 11013KT 04/04 A2978 RMK A01 T00380036  RH  098%=      5-min Rain = 0
KCL1 230344Z 11014KT 04/04 A2978 RMK A01 T00380036  RH  099%=      5-min Rain = 0
KCL1 230345Z 11011KT 04/04 A2978 RMK A01 T00380036  RH  099%=      5-min Rain = 0
KCL1 230346Z 11010KT 04/04 A2978 RMK A01 T00380036  RH  099%=      5-min Rain = 0
KCL1 230347Z 11010KT 04/04 A2978 RMK A01 T00380036  RH  099%=      5-min Rain = 0
KCL1 230348Z 12011KT 04/04 A2978 RMK A01 T00380036  RH  099%=      5-min Rain = 0
KCL1 230349Z 13011KT 04/04 A2978 RMK A01 T00380036  RH  099%=      5-min Rain = 0
KCL1 230350Z 12012KT 04/04 A2978 RMK A01 T00380036  RH  099%=      5-min Rain = 0
KCL1 230351Z 12015KT 04/04 A2978 RMK A01 T00380037  RH  099%=      5-min Rain = 0
KCL1 230352Z 12015KT 04/04 A2978 RMK A01 T00380037  RH  100%=      5-min Rain = 0
KCL1 230353Z 12015KT 04/04 A2978 RMK A01 T00380037  RH  100%=      5-min Rain = 0
KCL1 230354Z 12013KT 04/04 A2978 RMK A01 T00370037  RH  100%=      5-min Rain = 0
KCL1 230355Z 12015KT 04/04 A2978 RMK A01 T00370037  RH  100%=      5-min Rain = 0
KCL1 230356Z 12015KT 04/04 A2978 RMK A01 T00370037  RH  100%=      5-min Rain = 0
KCL1 230357Z 12017KT 04/04 A2978 RMK A01 T00370037  RH  100%=      5-min Rain = 0
KCL1 230358Z 12014KT 04/04 A2978 RMK A01 T00370037  RH  100%=      5-min Rain = 0
KCL1 230359Z 12015KT 04/04 A2978 RMK A01 T00370037  RH  100%=      5-min Rain = 0
KCL1 230400Z 12016KT 04/04 A2978 RMK A01 T00370037  RH  100%=      5-min Rain = 0
KCL1 230401Z 12014G19KT 04/04 A2978 RMK A01 T00370037  RH  100%=      5-min Rain = 0
KCL1 230402Z 12016KT 04/04 A2978 RMK A01 T00370037  RH  100%=      5-min Rain = 0
KCL1 230403Z 12016KT 04/04 A2978 RMK A01 T00370037  RH  100%=      5-min Rain = 0
KCL1 230404Z 13014KT 04/04 A2978 RMK A01 T00370037  RH  100%=      5-min Rain = 0
KCL1 230405Z 13015KT 04/04 A2978 RMK A01 T00370036  RH  100%=      5-min Rain = 0
KCL1 230406Z 13015KT 04/04 A2978 RMK A01 T00360036  RH  100%=      5-min Rain = 0
KCL1 230407Z 12016KT 04/04 A2978 RMK A01 T00360036  RH  100%=      5-min Rain = 0
KCL1 230408Z 12015KT 04/04 A2978 RMK A01 T00370036  RH  100%=      5-min Rain = 0
KCL1 230409Z 12013KT 04/04 A2978 RMK A01 T00370037  RH  100%=      5-min Rain = 0
KCL1 230410Z 12014KT 04/04 A2978 RMK A01 T00370037  RH  100%=      5-min Rain = 0
KCL1 230411Z 12012KT 04/04 A2978 RMK A01 T00370037  RH  100%=      5-min Rain = 0
KCL1 230412Z 12014KT 04/04 A2978 RMK A01 T00370037  RH  100%=      5-min Rain = 0
KCL1 230413Z 13012KT 04/04 A2978 RMK A01 T00370037  RH  100%=      5-min Rain = 0
KCL1 230414Z 13011KT 04/04 A2978 RMK A01 T00370037  RH  100%=      5-min Rain = 0
KCL1 230415Z 12010KT 04/04 A2978 RMK A01 T00370037  RH  100%=      5-min Rain = 0
KCL1 230416Z 13010KT 04/04 A2978 RMK A01 T00370037  RH  100%=      5-min Rain = 0
KCL1 230417Z 13011KT 04/04 A2979 RMK A01 T00370037  RH  100%=      5-min Rain = 0
KCL1 230418Z 12011KT 04/04 A2979 RMK A01 T00370037  RH  100%=      5-min Rain = 0
KCL1 230419Z 12013KT 04/04 A2979 RMK A01 T00370037  RH  100%=      5-min Rain = 0
KCL1 230420Z 13012KT 04/04 A2979 RMK A01 T00370037  RH  100%=      5-min Rain = 0
KCL1 230421Z 13013KT 04/04 A2979 RMK A01 T00370037  RH  100%=      5-min Rain = 0
KCL1 230422Z 13011KT 04/04 A2979 RMK A01 T00370037  RH  100%=      5-min Rain = 0
KCL1 230423Z 13014KT 04/04 A2979 RMK A01 T00370037  RH  100%=      5-min Rain = 0
KCL1 230424Z 12015KT 04/04 A2979 RMK A01 T00370037  RH  100%=      5-min Rain = 0
KCL1 230425Z 13013KT 04/04 A2979 RMK A01 T00370037  RH  100%=      5-min Rain = 0
KCL1 230426Z 12017KT 04/04 A2979 RMK A01 T00370037  RH  100%=      5-min Rain = 0
KCL1 230427Z 13015KT 04/04 A2979 RMK A01 T00370037  RH  100%=      5-min Rain = 0
KCL1 230428Z 13013KT 04/04 A2979 RMK A01 T00370037  RH  100%=      5-min Rain = 0
KCL1 230429Z 14011KT 04/04 A2979 RMK A01 T00370037  RH  100%=      5-min Rain = 0
KCL1 230430Z 13012KT 04/04 A2978 RMK A01 T00370037  RH  100%=      5-min Rain = 0
KCL1 230431Z 13011KT 04/04 A2978 RMK A01 T00370037  RH  100%=      5-min Rain = 0
KCL1 230432Z 13013KT 04/04 A2978 RMK A01 T00370037  RH  100%=      5-min Rain = 0
KCL1 230433Z 12011KT 04/04 A2978 RMK A01 T00370037  RH  100%=      5-min Rain = 0
KCL1 230434Z 13013KT 04/04 A2978 RMK A01 T00370037  RH  100%=      5-min Rain = 0
KCL1 230435Z 13013KT 04/04 A2978 RMK A01 T00370037  RH  100%=      5-min Rain = 0
KCL1 230436Z 13013KT 04/04 A2978 RMK A01 T00370037  RH  100%=      5-min Rain = 0
KCL1 230437Z 13014KT 04/04 A2978 RMK A01 T00370037  RH  100%=      5-min Rain = 0
KCL1 230438Z 12015KT 04/04 A2977 RMK A01 T00380038  RH  100%=      5-min Rain = 0
KCL1 230439Z 13015KT 04/04 A2977 RMK A01 T00370037  RH  100%=      5-min Rain = 0
KCL1 230440Z 13014KT 04/04 A2977 RMK A01 T00380038  RH  100%=      5-min Rain = 0
KCL1 230441Z 12014KT 04/04 A2977 RMK A01 T00370037  RH  100%=      5-min Rain = 0
KCL1 230442Z 13011KT 04/04 A2977 RMK A01 T00370037  RH  100%=      5-min Rain = 0
KCL1 230443Z 13011KT 04/04 A2977 RMK A01 T00370037  RH  100%=      5-min Rain = 0
KCL1 230444Z 13013KT 04/04 A2977 RMK A01 T00370037  RH  100%=      5-min Rain = 0
KCL1 230445Z 13013KT 04/04 A2977 RMK A01 T00380037  RH  100%=      5-min Rain = 0
KCL1 230446Z 13013KT 04/04 A2977 RMK A01 T00370037  RH  100%=      5-min Rain = 0
KCL1 230447Z 13013KT 04/04 A2977 RMK A01 T00370037  RH  100%=      5-min Rain = 0
KCL1 230448Z 13012KT 04/04 A2976 RMK A01 T00380038  RH  100%=      5-min Rain = 0
KCL1 230449Z 12013KT 04/04 A2976 RMK A01 T00380038  RH  100%=      5-min Rain = 0
KCL1 230450Z 13013KT 04/04 A2976 RMK A01 T00380038  RH  100%=      5-min Rain = 0
KCL1 230451Z 13012KT 04/04 A2976 RMK A01 T00380038  RH  100%=      5-min Rain = 0
KCL1 230452Z 13011KT 04/04 A2976 RMK A01 T00380038  RH  100%=      5-min Rain = 0
KCL1 230453Z 13012KT 04/04 A2976 RMK A01 T00380038  RH  100%=      5-min Rain = 0
KCL1 230454Z 12012KT 04/04 A2976 RMK A01 T00380038  RH  100%=      5-min Rain = 0
KCL1 230455Z 12010KT 04/04 A2976 RMK A01 T00380038  RH  100%=      5-min Rain = 0
KCL1 230456Z 13010KT 04/04 A2976 RMK A01 T00380038  RH  100%=      5-min Rain = 0
KCL1 230457Z 12009KT 04/04 A2976 RMK A01 T00390039  RH  100%=      5-min Rain = 0
KCL1 230458Z 12011KT 04/04 A2976 RMK A01 T00380038  RH  100%=      5-min Rain = 0
KCL1 230459Z 12011KT 04/04 A2976 RMK A01 T00390039  RH  100%=      5-min Rain = 0
KCL1 230500Z 13010KT 04/04 A2976 RMK A01 T00390039  RH  100%=      5-min Rain = 0
KCL1 230501Z 13011KT 04/04 A2976 RMK A01 T00390039  RH  100%=      5-min Rain = 0
KCL1 230502Z 13011KT 04/04 A2976 RMK A01 T00390039  RH  100%=      5-min Rain = 0
KCL1 230503Z 13009KT 04/04 A2976 RMK A01 T00390039  RH  100%=      5-min Rain = 0
KCL1 230504Z 13011KT 04/04 A2975 RMK A01 T00390039  RH  100%=      5-min Rain = 0
KCL1 230505Z 13012KT 04/04 A2975 RMK A01 T00390039  RH  100%=      5-min Rain = 0
KCL1 230506Z 12008KT 04/04 A2975 RMK A01 T00390039  RH  100%=      5-min Rain = 0
KCL1 230507Z 13009KT 04/04 A2975 RMK A01 T00400040  RH  100%=      5-min Rain = 0
KCL1 230508Z 13009KT 04/04 A2975 RMK A01 T00400040  RH  100%=      5-min Rain = 0
KCL1 230509Z 13009KT 04/04 A2975 RMK A01 T00400040  RH  100%=      5-min Rain = 0
KCL1 230510Z 13008KT 04/04 A2975 RMK A01 T00400040  RH  100%=      5-min Rain = 0
KCL1 230511Z 13009KT 04/04 A2975 RMK A01 T00400040  RH  100%=      5-min Rain = 0
KCL1 230512Z 14008KT 04/04 A2975 RMK A01 T00400040  RH  100%=      5-min Rain = 0
KCL1 230513Z 14008KT 04/04 A2975 RMK A01 T00400040  RH  100%=      5-min Rain = 0
KCL1 230514Z 13006KT 04/04 A2975 RMK A01 T00400040  RH  100%=      5-min Rain = 0
KCL1 230515Z 13007KT 04/04 A2975 RMK A01 T00400040  RH  100%=      5-min Rain = 0
KCL1 230516Z 13009KT 04/04 A2975 RMK A01 T00400040  RH  100%=      5-min Rain = 0
KCL1 230517Z 12009KT 04/04 A2975 RMK A01 T00410041  RH  100%=      5-min Rain = 0
KCL1 230518Z 13008KT 04/04 A2975 RMK A01 T00410041  RH  100%=      5-min Rain = 0
KCL1 230519Z 13009KT 04/04 A2975 RMK A01 T00410041  RH  100%=      5-min Rain = 0
KCL1 230520Z 13008KT 04/04 A2975 RMK A01 T00410041  RH  100%=      5-min Rain = 0
KCL1 230521Z 13008KT 04/04 A2974 RMK A01 T00410041  RH  100%=      5-min Rain = 0
KCL1 230522Z 12008KT 04/04 A2974 RMK A01 T00410041  RH  100%=      5-min Rain = 0
KCL1 230523Z 12008KT 04/04 A2974 RMK A01 T00410041  RH  100%=      5-min Rain = 0
KCL1 230524Z 12009KT 04/04 A2974 RMK A01 T00410041  RH  100%=      5-min Rain = 0
KCL1 230525Z 12009KT 04/04 A2974 RMK A01 T00410041  RH  100%=      5-min Rain = 0
KCL1 230526Z 12009KT 04/04 A2974 RMK A01 T00410041  RH  100%=      5-min Rain = 0
KCL1 230527Z 12009KT 04/04 A2974 RMK A01 T00410041  RH  100%=      5-min Rain = 0
KCL1 230528Z 13011KT 04/04 A2974 RMK A01 T00410041  RH  100%=      5-min Rain = 0
KCL1 230529Z 12012KT 04/04 A2974 RMK A01 T00410041  RH  100%=      5-min Rain = 0
KCL1 230530Z 13012KT 04/04 A2975 RMK A01 T00410041  RH  100%=      5-min Rain = 0
KCL1 230531Z 14011KT 04/04 A2975 RMK A01 T00420041  RH  100%=      5-min Rain = 0
KCL1 230532Z 14010KT 04/04 A2975 RMK A01 T00420042  RH  100%=      5-min Rain = 0
KCL1 230533Z 14010KT 04/04 A2975 RMK A01 T00420042  RH  100%=      5-min Rain = 0
KCL1 230534Z 14011KT 04/04 A2975 RMK A01 T00420042  RH  100%=      5-min Rain = 0
KCL1 230535Z 15010KT 04/04 A2975 RMK A01 T00420042  RH  100%=      5-min Rain = 0
KCL1 230536Z 15008KT 04/04 A2976 RMK A01 T00420042  RH  100%=      5-min Rain = 0
KCL1 230537Z 15006KT 04/04 A2975 RMK A01 T00420042  RH  100%=      5-min Rain = 0
KCL1 230538Z 15009KT 04/04 A2975 RMK A01 T00420041  RH  100%=      5-min Rain = 0
KCL1 230539Z 14009KT 04/04 A2975 RMK A01 T00420041  RH  100%=      5-min Rain = 0
KCL1 230540Z 14007KT 04/04 A2975 RMK A01 T00410041  RH  100%=      5-min Rain = 0
KCL1 230541Z 15009KT 04/04 A2975 RMK A01 T00420042  RH  100%=      5-min Rain = 0
KCL1 230542Z 14009KT 04/04 A2975 RMK A01 T00410041  RH  100%=      5-min Rain = 0
KCL1 230543Z 14011KT 04/04 A2975 RMK A01 T00420041  RH  100%=      5-min Rain = 0
KCL1 230544Z 14012KT 04/04 A2976 RMK A01 T00420042  RH  100%=      5-min Rain = 0
KCL1 230545Z 15011KT 04/04 A2976 RMK A01 T00420041  RH  100%=      5-min Rain = 0
KCL1 230546Z 15008KT 04/04 A2975 RMK A01 T00420041  RH  100%=      5-min Rain = 0
KCL1 230547Z 15008KT 04/04 A2975 RMK A01 T00420042  RH  100%=      5-min Rain = 0
KCL1 230548Z 15008KT 04/04 A2975 RMK A01 T00410041  RH  100%=      5-min Rain = 0
KCL1 230549Z 15006KT 04/04 A2974 RMK A01 T00420042  RH  100%=      5-min Rain = 0
KCL1 230550Z 16007KT 04/04 A2974 RMK A01 T00410041  RH  100%=      5-min Rain = 0
KCL1 230551Z 14006KT 04/04 A2974 RMK A01 T00420042  RH  100%=      5-min Rain = 0
KCL1 230552Z 15006KT 04/04 A2974 RMK A01 T00420041  RH  100%=      5-min Rain = 0
KCL1 230553Z 15008KT 04/04 A2975 RMK A01 T00420042  RH  100%=      5-min Rain = 0
KCL1 230554Z 15009KT 04/04 A2975 RMK A01 T00420042  RH  100%=      5-min Rain = 0
KCL1 230555Z 15008KT 04/04 A2975 RMK A01 T00410041  RH  100%=      5-min Rain = 0
KCL1 230556Z 14009KT 04/04 A2974 RMK A01 T00420042  RH  100%=      5-min Rain = 0
KCL1 230557Z 15009KT 04/04 A2974 RMK A01 T00420042  RH  100%=      5-min Rain = 0
KCL1 230558Z 15009KT 04/04 A2974 RMK A01 T00410041  RH  100%=      5-min Rain = 0
KCL1 230559Z 15011KT 04/04 A2974 RMK A01 T00410041  RH  100%=      5-min Rain = 0

Page generated in 0.08 seconds.